GFSNE_sfc_dewp_000.txt.gz
Dewpoint
37 37 37 38 38 37 37 34 34 32 28 30 30 32 31 31 34 32 34 39 39 42 42 43 42 40 39 40 43 45 46 45 42 46 47 47 47 51
32 31 29 28 30 31 29 29 28 25 22 21 21 24 26 21 30 29 30 38 40 41 41 40 41 40 40 40 41 42 45 46 44 43 45 47 48 48
29 28 27 27 26 25 25 25 23 23 21 21 20 23 26 27 27 29 29 29 30 39 40 38 38 39 39 39 40 42 43 45 45 44 43 44 46 49
26 26 25 17 24 24 23 25 24 24 23 23 23 22 25 26 28 29 25 22 26 32 40 39 38 37 37 37 39 41 42 43 43 44 43 43 44 46
25 24 23 24 24 23 24 23 23 19 22 21 21 22 23 23 24 26 27 28 24 31 37 38 39 39 39 38 39 40 42 41 42 42 42 42 42 43
24 25 23 23 23 23 21 22 20 20 20 19 18 19 20 22 22 22 23 25 25 21 26 28 32 36 37 38 38 40 41 42 42 42 41 40 40 41
24 23 24 25 26 26 22 21 21 20 19 19 19 20 20 21 21 22 22 24 25 26 26 27 27 27 28 34 32 38 38 41 42 42 41 41 40 41
21 21 21 25 24 26 26 25 26 23 22 21 20 21 21 21 22 22 24 23 22 29 27 28 30 28 28 28 31 35 38 40 41 41 40 40 39 38
21 21 18 15 22 20 24 27 26 26 25 24 23 23 23 24 24 25 25 25 23 24 27 29 31 33 35 28 34 36 37 38 40 40 39 38 37 37
21 21 19 19 21 23 22 22 22 23 24 24 24 22 23 23 24 24 25 26 28 25 27 28 32 33 34 34 34 35 37 38 38 38 37 37 36 36
20 20 21 23 24 25 25 27 24 24 25 28 28 27 28 29 28 27 29 27 28 24 25 25 30 31 32 34 37 34 35 36 36 38 38 37 36 36
24 23 25 24 26 25 28 28 25 22 23 26 26 30 30 27 29 29 28 26 26 25 24 24 23 24 28 35 34 37 38 34 34 36 38 37 36 37
22 23 25 28 27 25 24 26 24 25 23 23 23 24 25 27 29 30 30 31 28 25 25 22 28 24 26 27 33 34 35 37 37 37 36 36 34 35
25 26 30 24 24 22 21 22 22 23 25 26 26 25 25 26 26 27 28 29 31 27 27 27 29 24 25 27 27 29 34 36 36 36 37 37 34 33
28 26 23 23 22 21 22 21 23 27 26 25 25 26 27 28 30 31 31 29 29 31 30 29 29 27 26 28 28 30 31 35 36 36 37 37 37 37
24 28 24 23 24 25 23 23 24 24 23 24 24 25 28 30 31 31 30 31 30 29 34 34 31 31 29 28 27 29 31 32 36 36 36 37 36 36
24 24 21 21 22 20 20 20 22 22 23 24 25 25 26 27 29 30 30 30 30 29 29 30 34 34 32 32 30 31 30 31 32 34 34 32 35 36
21 19 19 19 20 19 19 19 21 21 21 23 25 25 25 26 27 30 28 28 29 29 28 30 32 32 32 32 33 27 26 30 31 35 34 30 30 34
18 17 18 18 19 16 17 18 19 20 22 22 23 24 24 24 28 29 30 29 28 26 26 28 28 29 27 26 29 26 29 28 34 34 35 31 30 30
16 16 16 17 15 14 15 17 19 20 21 21 22 23 24 24 25 26 28 29 30 28 28 27 27 28 28 29 31 28 25 29 31 30 32 32 30 23
14 14 15 14 15 15 18 18 21 20 21 22 22 22 24 23 23 23 25 26 27 27 25 25 25 25 28 31 29 27 26 25 28 30 32 29 27 26
12 11 13 14 16 16 18 19 18 20 20 20 22 23 23 24 23 22 23 24 24 25 22 22 23 23 25 24 27 25 25 26 25 25 25 25 27 27
12 12 14 15 16 16 15 17 17 19 18 19 20 22 24 23 22 22 22 22 21 22 21 22 21 21 21 21 24 24 22 23 25 25 25 24 24 23

GFSNE_sfc_dewp_003.txt.gz
Dewpoint
39 38 37 38 39 36 35 36 35 33 30 34 36 39 40 38 37 36 35 41 41 41 42 41 41 38 38 38 39 42 43 45 45 43 46 48 49 48
35 33 32 31 30 31 31 34 34 33 29 28 27 30 31 25 34 35 34 41 40 39 39 39 39 40 41 40 41 42 42 44 46 44 42 43 45 47
34 32 31 30 28 26 28 28 26 25 24 24 23 27 30 31 28 33 33 34 33 38 37 38 39 39 39 39 39 40 42 44 45 46 45 43 43 43
29 29 29 25 28 26 24 24 24 24 22 23 24 25 28 30 32 33 26 23 28 32 39 38 38 37 37 37 38 39 40 42 43 44 45 45 44 44
26 26 24 24 24 25 24 24 22 19 23 22 21 23 25 26 26 28 29 32 24 34 39 39 39 39 38 37 38 39 40 41 41 41 42 42 42 43
23 23 23 23 23 24 23 23 21 21 21 21 20 21 22 23 24 24 26 28 27 19 26 28 34 37 37 37 38 38 39 39 41 41 41 40 40 41
25 21 24 25 27 27 21 22 22 22 21 20 21 21 22 23 22 24 25 27 29 29 29 30 31 31 31 36 35 38 38 39 40 41 42 41 40 41
20 21 21 25 26 30 30 30 26 20 19 21 21 21 22 23 23 24 25 25 23 30 28 30 31 30 30 32 35 33 33 35 37 37 39 40 39 38
20 21 19 16 24 19 23 27 27 28 26 23 21 21 21 23 24 25 26 26 26 26 28 30 34 34 34 27 34 35 35 37 37 39 39 39 38 37
20 20 21 20 21 22 23 23 22 22 23 23 24 23 24 24 24 24 25 27 28 28 29 28 34 34 35 35 34 34 36 35 37 38 38 38 37 36
20 20 22 22 23 24 24 25 23 23 24 28 28 28 28 28 28 28 29 29 28 24 26 28 31 32 33 35 36 33 34 35 36 37 37 37 37 35
24 21 24 24 26 27 27 27 26 23 23 26 27 28 33 32 29 28 26 25 26 26 25 27 26 26 28 34 33 35 36 34 34 35 36 37 37 37
23 23 25 27 26 26 25 25 24 25 24 22 23 23 23 24 26 31 29 29 27 26 27 27 31 27 28 28 32 35 37 37 38 37 35 35 37 37
24 25 28 23 23 23 22 22 23 22 25 25 26 25 26 25 24 26 29 33 32 30 30 30 30 28 27 28 27 31 34 36 37 38 39 37 37 36
27 24 26 24 24 24 27 22 23 26 27 25 25 26 28 29 30 31 32 33 32 32 30 30 30 32 33 28 27 29 32 34 37 37 38 36 36 36
23 25 25 24 25 27 26 26 27 26 24 25 26 26 28 30 32 32 32 31 31 31 32 32 32 31 31 28 28 29 30 30 36 36 36 35 37 37
23 24 22 21 21 23 22 22 24 23 24 25 26 25 26 27 28 32 28 30 30 28 30 31 32 33 31 30 29 29 30 31 34 34 35 34 36 36
21 19 19 19 21 21 21 21 21 21 21 23 24 25 25 26 27 31 29 28 27 29 29 29 32 30 29 31 32 28 29 30 30 33 34 34 31 34
18 18 18 19 18 14 17 18 18 21 22 22 23 24 25 25 28 28 29 30 29 27 27 29 30 30 27 24 28 28 30 29 33 33 33 34 31 30
16 17 16 15 14 14 15 17 19 21 22 22 23 24 24 25 26 25 27 26 26 27 29 29 29 29 28 28 29 26 27 27 28 29 30 33 31 26
12 11 14 14 15 16 18 20 22 21 22 23 23 24 24 25 24 24 25 25 25 24 24 24 25 26 28 30 29 27 26 25 26 27 29 31 28 26
12 11 13 14 16 16 18 19 20 20 20 20 22 24 25 25 24 24 24 24 23 24 23 24 23 23 26 24 26 25 26 26 25 24 25 25 25 25
14 13 14 15 15 15 15 17 18 19 18 18 19 22 24 23 24 24 24 23 22 22 22 22 23 21 22 21 23 25 22 23 25 27 25 23 24 24

GFSNE_sfc_dewp_006.txt.gz
Dewpoint
39 39 38 38 39 38 37 37 35 31 29 29 39 42 44 44 45 42 40 40 40 42 42 40 43 42 41 40 40 42 43 45 46 46 47 47 48 49
38 38 38 36 36 36 36 37 36 34 31 32 29 30 31 31 40 41 37 43 41 40 40 38 38 39 40 41 41 41 42 42 44 46 45 43 42 43
34 34 34 33 33 33 31 29 28 30 28 26 28 27 29 32 29 30 33 36 38 39 38 38 38 39 40 39 38 38 38 40 42 44 47 44 42 41
31 30 30 27 28 28 27 27 27 27 26 23 25 25 25 27 28 31 29 25 31 38 39 38 38 38 38 38 37 37 38 38 40 42 43 45 45 44
24 25 25 26 26 26 26 26 26 23 25 24 23 25 25 26 25 27 27 30 29 34 39 38 38 38 39 38 37 37 37 38 39 40 41 41 42 43
24 23 23 24 25 26 26 26 24 23 22 22 21 22 23 24 25 23 24 26 27 23 28 31 37 38 38 37 37 37 38 38 39 39 39 39 39 41
22 21 22 25 29 28 22 23 23 22 22 21 21 21 22 23 24 27 27 28 29 31 30 29 30 33 35 38 36 37 38 38 38 39 40 40 39 40
21 20 21 25 25 29 30 29 27 22 20 20 19 20 20 22 24 25 26 25 24 29 28 28 31 30 32 32 36 34 35 36 38 38 39 39 40 38
19 20 20 19 25 23 27 28 27 30 28 25 22 22 21 21 22 23 23 24 25 27 27 25 27 29 32 30 36 34 34 34 35 36 38 37 38 38
20 19 20 20 24 24 24 25 24 24 25 25 25 26 25 24 25 26 27 27 27 27 28 26 25 27 28 30 34 35 34 34 34 35 35 37 37 37
21 22 23 22 23 25 23 24 24 24 25 28 29 30 30 30 29 27 25 26 25 26 26 26 24 25 27 28 30 34 34 34 35 35 36 37 37 37
23 22 23 24 27 27 27 27 25 26 25 26 25 24 25 29 32 31 28 24 22 21 24 25 25 26 25 27 29 31 28 33 34 34 36 36 37 34
21 21 23 29 27 24 23 24 24 24 24 23 22 22 23 24 25 26 30 29 25 23 25 27 28 25 29 26 25 28 30 30 30 32 35 35 36 35
22 24 24 25 24 24 24 25 25 24 23 22 23 24 26 26 27 26 27 31 32 28 28 30 30 26 25 24 25 27 28 30 30 29 32 35 35 35
23 24 25 25 24 25 26 25 25 24 25 25 24 26 27 28 28 29 30 31 31 31 32 31 30 29 27 26 26 25 25 28 33 35 31 28 28 34
21 22 24 23 23 25 25 25 25 26 24 25 25 26 28 28 29 30 31 30 29 28 31 31 30 30 28 28 28 25 24 25 29 34 34 29 34 33
21 22 20 19 20 22 21 23 24 23 23 23 24 25 26 26 27 27 29 27 27 26 26 28 30 31 29 27 25 25 26 25 27 32 32 32 32 33
20 18 18 18 18 20 20 20 21 22 22 23 23 24 24 24 25 26 30 27 23 24 26 27 31 29 28 26 30 27 24 25 27 29 32 32 31 32
18 18 18 16 16 16 17 18 19 22 22 22 23 23 24 24 26 25 26 26 25 28 25 31 28 28 25 22 26 29 27 27 28 25 27 26 30 31
16 16 15 16 16 16 16 17 19 20 20 20 22 23 21 24 25 23 24 26 26 26 28 25 23 24 25 24 25 23 28 27 28 26 26 30 27 29
13 13 15 15 16 16 17 17 19 20 19 19 20 22 23 24 23 23 23 21 22 24 22 23 21 22 24 25 22 23 21 25 25 25 25 25 28 26
14 14 14 16 16 15 15 16 17 17 17 17 17 19 22 23 23 23 23 23 23 22 23 24 25 24 23 23 23 20 22 20 23 25 25 24 22 21
12 14 15 15 15 14 15 14 14 14 14 15 15 17 20 20 22 23 22 23 22 19 18 23 23 25 23 21 20 22 14 19 23 22 20 24 24 25

GFSNE_sfc_dewp_009.txt.gz
Dewpoint
37 38 39 39 38 39 38 38 36 30 28 31 32 36 40 43 43 45 46 45 43 42 43 42 45 41 39 39 40 41 42 43 45 47 46 46 48 48
36 36 36 37 38 39 38 37 36 34 31 30 30 32 31 30 41 42 43 43 43 41 42 40 39 39 39 39 40 39 38 38 40 43 46 46 43 41
34 33 30 29 32 36 36 34 32 32 31 28 27 27 26 27 28 35 39 39 39 41 39 38 38 39 39 39 39 38 36 37 37 37 38 43 46 43
26 26 26 23 25 27 28 27 27 27 26 24 25 25 24 26 27 26 26 22 34 39 40 38 39 39 39 38 38 38 37 36 37 38 39 40 41 45
25 25 23 22 22 24 26 27 27 25 24 23 23 24 24 25 24 26 25 27 26 34 39 39 38 39 38 38 38 37 37 38 38 39 39 40 40 41
25 24 23 22 22 23 23 25 25 25 23 22 22 22 23 24 25 25 26 27 26 25 29 33 37 39 39 39 38 38 38 38 38 38 38 38 38 39
23 22 21 22 25 26 25 25 25 24 22 21 21 21 21 22 22 26 25 26 27 29 28 28 29 31 33 36 38 38 38 38 39 39 39 38 38 39
20 19 20 22 23 24 27 29 28 25 22 21 20 19 19 21 22 22 23 23 23 28 27 26 28 28 30 31 35 37 35 35 34 36 38 39 39 38
20 19 19 17 22 23 25 27 26 27 28 27 25 23 22 23 22 21 22 23 23 26 26 24 24 26 29 30 35 34 33 33 34 35 34 36 37 37
22 20 20 21 23 23 22 22 24 25 24 24 27 26 26 25 25 24 26 28 26 27 27 23 23 23 26 28 34 35 35 34 33 33 34 34 35 37
22 22 21 20 23 26 25 25 25 24 25 26 28 30 30 32 31 30 27 25 22 23 25 23 22 22 23 25 28 33 34 35 35 35 34 34 35 36
22 21 22 23 28 28 25 23 22 21 24 24 24 23 24 25 26 28 27 26 25 19 22 24 22 23 20 23 26 27 27 32 34 35 35 35 35 34
20 20 22 23 25 25 24 24 23 23 25 23 22 22 22 23 24 25 26 27 26 25 25 25 23 22 23 23 22 24 24 27 29 31 34 36 36 35
21 21 23 26 23 24 25 27 25 25 22 22 23 23 24 25 27 30 29 28 29 27 27 27 28 26 25 24 22 24 23 25 25 25 27 32 35 36
21 23 24 22 24 25 26 26 25 26 24 23 24 25 26 27 28 29 29 31 30 30 30 30 31 30 29 26 23 24 24 25 23 25 31 32 28 26
20 22 22 22 22 24 22 23 24 23 23 22 22 25 27 27 27 28 28 28 29 28 30 31 32 32 29 29 28 26 26 25 26 29 32 32 32 28
20 19 19 18 18 20 19 20 21 22 21 22 22 23 24 25 25 27 28 29 24 23 24 27 30 30 30 28 27 27 27 24 25 25 28 26 32 32
18 16 16 16 16 16 17 18 19 21 21 21 22 22 23 23 24 26 26 23 22 25 22 24 24 28 29 29 31 28 25 24 24 28 26 29 28 28
15 15 14 14 15 16 16 17 17 21 21 20 21 21 22 23 24 23 20 21 21 25 28 27 28 28 25 22 26 29 28 26 26 20 21 23 28 29
14 14 13 14 15 15 15 16 17 19 18 18 18 19 21 22 18 21 20 16 22 24 24 23 21 21 19 19 19 15 27 22 23 21 20 25 26 29
12 14 14 15 15 14 13 14 15 15 14 15 16 17 17 21 20 18 18 18 17 22 21 20 21 21 22 21 21 17 17 25 21 18 20 19 21 27
4 11 14 15 13 13 13 12 13 12 11 12 12 14 16 19 19 19 19 19 16 15 18 19 24 25 20 21 19 16 15 13 21 24 24 22 18 18
0 5 7 10 12 11 14 12 10 7 8 9 10 10 12 14 16 19 16 17 19 14 15 19 22 22 22 20 18 20 11 10 18 17 16 23 24 25

GFSNE_sfc_dewp_012.txt.gz
Dewpoint
35 35 36 36 38 37 37 36 33 28 30 33 31 34 36 37 40 41 40 42 43 42 44 44 46 44 40 42 42 41 43 44 45 47 47 46 46 47
35 33 31 30 32 33 35 36 35 33 29 30 29 29 29 25 31 37 40 39 41 41 42 43 42 44 42 40 39 40 38 37 38 39 42 46 45 42
27 26 26 26 26 27 27 28 30 32 29 27 29 26 24 25 25 27 30 40 41 39 40 42 42 41 41 40 39 38 36 35 35 34 35 37 39 45
25 25 24 21 23 23 24 24 26 26 26 24 25 24 23 24 25 25 25 24 33 36 38 41 42 41 39 39 39 39 37 34 36 37 37 35 35 37
24 24 23 23 21 21 22 23 23 23 26 24 23 24 24 24 24 26 26 28 26 32 34 33 40 41 39 39 39 38 38 38 37 37 37 38 39 38
25 24 23 21 20 21 21 23 23 24 25 23 22 22 22 23 25 25 24 26 25 24 31 32 35 37 38 39 39 39 39 39 39 39 38 37 38 38
23 22 21 21 22 21 21 23 28 26 25 23 22 21 20 20 21 24 23 23 23 28 29 28 29 30 32 34 36 38 38 38 38 38 38 38 38 38
21 20 20 21 21 23 24 25 24 27 25 26 23 20 19 20 21 21 21 21 20 26 26 25 27 27 29 32 36 36 36 35 35 35 37 38 38 38
21 21 20 18 22 22 24 25 24 25 25 25 25 24 22 22 22 21 21 21 22 24 25 23 25 25 27 28 33 34 34 34 34 34 34 34 36 36
22 22 20 20 21 21 23 26 24 25 24 23 23 25 25 25 24 24 23 23 27 27 27 21 22 22 24 26 31 35 35 35 34 34 34 34 34 34
21 20 20 22 24 26 24 24 23 22 22 25 28 27 29 29 29 29 26 25 23 23 25 23 22 21 22 23 26 31 33 34 35 35 34 34 34 34
20 19 21 21 25 27 26 25 22 21 21 22 24 23 23 23 24 25 23 23 22 20 23 22 22 21 17 21 23 24 25 32 34 35 36 35 35 32
19 19 21 24 24 24 26 25 24 26 25 25 23 22 22 23 23 24 25 24 23 22 24 24 21 21 21 21 21 23 23 23 25 28 33 35 36 35
20 21 23 23 25 25 25 26 25 26 25 23 22 22 23 24 26 28 29 29 27 25 26 27 24 24 22 19 21 22 21 21 21 22 23 29 32 34
21 21 20 21 22 23 23 25 24 23 23 21 22 23 25 27 29 29 30 30 31 29 29 28 28 26 26 24 20 22 21 21 19 21 29 24 25 25
20 20 20 20 20 21 21 22 22 22 22 21 22 24 26 26 26 28 27 27 29 28 30 30 30 30 29 28 28 25 24 23 23 29 24 28 31 32
14 17 17 16 16 16 17 18 20 21 21 21 21 22 23 25 25 26 27 27 25 23 25 25 28 30 30 30 27 26 25 24 23 23 27 28 24 27
13 13 13 13 14 15 14 15 16 19 19 20 20 20 21 22 23 24 24 21 22 24 26 27 28 29 29 29 31 27 26 27 22 24 27 27 27 25
7 9 9 12 13 14 14 15 14 16 18 18 18 18 19 21 21 20 18 17 20 23 21 20 25 27 24 21 23 27 24 25 23 19 20 28 27 28
8 6 11 13 13 14 13 13 14 13 12 14 15 15 16 19 18 19 18 15 19 22 21 21 19 21 19 16 18 14 25 25 26 22 21 24 27 29
7 8 6 13 12 12 11 10 8 9 8 9 11 12 13 16 16 18 17 13 13 19 17 17 18 21 21 21 15 12 14 24 21 14 15 13 15 20
1 6 6 8 6 9 8 7 7 5 6 7 7 8 10 14 15 16 16 16 14 11 14 18 22 24 18 20 16 12 14 11 19 24 24 21 15 15
-2 3 -0 -2 1 3 11 7 6 -0 5 6 6 7 7 9 13 14 13 12 13 12 13 16 18 20 21 19 16 18 11 9 20 16 13 22 24 24

GFSNE_sfc_dewp_015.txt.gz
Dewpoint
33 33 32 32 31 32 32 34 33 26 25 29 30 32 34 34 33 33 39 40 40 40 39 40 43 46 45 41 43 47 48 49 50 49 48 47 46 46
32 27 25 27 27 28 28 29 30 31 25 30 29 30 29 25 28 30 30 34 40 39 39 39 41 43 45 44 43 42 43 44 44 45 47 47 45 43
25 25 25 25 25 25 25 25 25 26 25 25 29 29 25 24 25 27 28 29 37 38 38 38 39 41 43 44 43 42 41 41 40 40 39 40 44 46
24 24 24 21 22 23 23 21 22 23 24 21 25 25 23 24 24 24 25 25 28 33 38 36 38 38 41 41 41 41 40 37 36 38 39 38 37 38
24 23 23 23 21 20 20 20 22 22 23 23 23 24 24 24 23 24 25 26 23 27 32 38 38 38 38 40 41 40 39 37 37 37 36 37 38 38
24 24 23 22 20 19 19 20 23 25 25 27 25 23 23 23 23 23 23 24 22 19 27 31 36 36 38 40 40 39 39 38 38 38 37 36 36 36
24 23 22 22 23 21 19 20 21 22 25 25 25 25 24 20 20 22 22 21 22 23 27 28 29 30 33 34 35 39 39 38 38 38 38 37 36 37
23 22 22 22 21 22 23 23 23 23 23 24 22 24 24 20 20 21 20 20 19 24 25 24 27 26 27 29 34 36 37 38 38 37 37 37 38 38
22 21 20 18 21 21 22 23 24 25 25 25 23 22 23 24 22 21 21 21 21 22 25 23 24 26 27 25 31 33 35 35 36 35 35 35 35 35
19 19 19 20 22 21 24 23 23 23 23 24 26 24 23 24 24 23 22 23 23 25 26 24 20 22 23 26 29 32 34 35 34 34 34 34 34 34
20 18 19 20 22 26 25 24 24 23 22 23 23 25 29 30 30 27 25 24 22 21 24 22 21 20 21 22 26 30 33 34 34 34 35 34 34 34
20 19 20 21 24 24 25 24 22 21 22 22 22 24 24 23 23 24 22 21 21 18 23 22 22 20 16 19 21 23 25 31 33 34 35 35 35 31
19 18 21 22 24 24 24 25 24 25 25 24 24 23 22 22 23 23 24 23 21 20 23 24 21 20 20 19 20 22 22 22 23 25 31 34 35 34
20 20 21 20 23 22 23 25 24 24 23 23 23 23 24 24 26 27 28 27 25 23 24 25 21 22 21 18 19 22 20 20 20 21 22 27 32 34
19 19 19 18 19 20 20 22 22 21 21 20 21 22 24 26 28 29 29 30 30 30 28 27 27 25 23 23 20 18 20 21 17 20 29 25 28 27
16 16 17 19 17 17 17 19 20 21 21 20 21 23 25 25 26 28 27 27 27 29 30 30 28 27 27 26 26 23 22 24 22 26 25 19 23 25
9 8 12 13 13 15 15 15 16 17 17 19 19 19 21 23 25 27 27 27 23 23 24 29 30 31 30 30 27 27 22 24 24 22 24 22 21 24
9 3 1 5 11 14 13 13 13 14 15 16 17 18 18 20 22 23 24 22 23 24 24 26 28 28 29 29 32 28 26 27 27 27 27 26 23 23
4 1 -4 0 8 13 12 12 12 11 12 14 14 14 16 18 20 20 20 21 21 23 21 21 25 28 25 23 25 28 25 25 27 21 25 27 25 27
6 2 0 3 5 12 12 11 10 8 7 8 11 11 12 15 16 18 19 15 17 20 19 19 18 21 18 14 15 18 25 24 26 25 20 21 22 28
5 6 0 5 4 6 3 7 4 4 2 2 6 9 10 12 14 16 15 15 14 17 16 15 16 19 19 16 12 9 11 23 20 14 15 12 14 22
1 5 6 4 -0 -0 -5 -4 4 3 5 4 2 3 5 9 12 13 14 9 11 9 13 16 19 22 17 18 13 4 14 14 21 23 23 20 14 13
1 3 1 -4 -3 -4 2 -4 -3 -4 4 3 3 4 2 4 9 9 9 10 11 11 12 14 16 18 19 18 13 15 13 11 21 16 12 21 24 24

GFSNE_sfc_dewp_018.txt.gz
Dewpoint
33 32 32 31 28 29 28 29 28 21 19 22 29 33 34 35 34 34 33 33 39 39 39 40 41 43 44 45 44 46 50 52 52 53 54 54 52 50
32 28 25 26 27 27 26 27 27 24 20 22 23 30 31 30 31 33 30 32 33 39 38 39 39 40 40 42 45 43 44 49 51 51 50 50 48 46
26 25 25 25 25 25 24 23 22 23 20 19 22 25 27 27 28 28 28 31 33 35 39 38 38 38 38 39 43 44 41 41 46 49 49 48 46 45
24 24 24 22 23 22 22 20 20 20 20 20 22 23 24 26 26 25 23 24 26 27 33 37 36 37 38 38 39 42 41 40 37 42 43 46 48 47
24 24 23 23 22 21 19 19 20 19 21 24 24 24 25 25 24 24 24 27 23 24 27 33 37 38 38 38 39 41 41 41 39 38 39 39 41 42
25 24 24 23 22 21 20 21 19 21 21 20 21 26 25 25 24 23 22 24 22 19 21 30 33 37 37 38 39 40 41 41 39 38 37 36 37 38
25 25 24 24 25 22 19 20 22 24 23 22 21 21 22 24 25 25 22 22 22 23 24 28 28 31 34 37 37 38 40 40 39 38 38 36 36 37
22 21 20 20 21 22 22 23 23 24 23 22 21 20 20 22 25 24 22 20 18 23 25 23 27 26 28 31 33 37 38 39 39 38 37 38 37 37
19 18 17 16 20 20 23 23 23 24 25 26 23 22 22 22 23 24 24 21 21 22 24 24 26 27 27 25 29 32 37 38 38 38 38 37 37 36
19 19 18 19 21 20 24 24 22 22 23 23 23 23 25 26 24 23 23 23 23 24 26 23 25 26 27 28 29 31 34 36 37 36 35 35 35 35
19 19 18 19 21 25 24 24 22 22 22 23 25 25 24 25 27 27 24 24 22 19 25 25 25 24 25 27 29 29 32 34 35 35 34 34 34 33
20 19 20 19 22 23 24 22 21 20 22 24 25 24 24 24 24 23 23 23 22 21 24 25 23 23 21 24 25 27 28 31 33 34 34 35 35 34
20 18 20 21 20 21 22 23 23 23 23 23 23 24 24 24 23 23 23 22 21 20 21 24 23 22 22 23 25 26 27 29 30 31 33 34 35 34
17 18 20 19 18 19 20 21 21 22 21 21 21 22 23 24 25 28 26 25 24 22 22 25 24 23 23 22 23 25 26 27 27 28 29 29 32 34
17 17 17 17 17 18 18 19 20 20 19 19 19 20 23 25 26 27 28 29 29 29 28 29 27 25 25 23 24 24 25 27 25 28 29 30 31 31
14 14 14 17 13 16 16 16 17 17 18 18 18 19 22 24 25 27 27 27 26 27 31 31 29 28 26 26 25 24 25 27 27 28 27 28 30 31
7 6 8 10 12 14 14 14 14 13 14 16 16 17 19 20 23 26 26 26 25 25 27 29 30 30 30 28 27 27 27 26 27 27 28 28 29 30
9 2 -4 -4 4 12 12 12 12 10 10 13 14 15 15 17 20 22 23 23 23 23 24 25 28 28 29 30 32 28 27 27 28 28 28 27 27 28
5 1 -6 -7 -1 10 11 11 10 9 10 9 12 12 14 15 18 19 19 19 20 22 22 24 25 27 24 23 26 28 27 27 27 27 28 27 26 28
7 3 0 -0 5 8 10 9 9 7 6 6 8 9 11 13 15 16 16 17 17 18 18 20 21 22 23 22 23 24 26 25 25 26 25 26 27 27
6 7 3 5 6 6 -1 -3 -4 4 4 2 4 5 6 10 12 13 13 10 12 15 14 16 19 21 22 22 20 21 21 23 23 23 22 22 22 23
5 7 8 7 3 2 -4 -9 -3 -3 3 5 4 3 4 5 9 10 11 11 12 12 13 16 19 21 22 21 19 17 20 21 23 23 23 21 22 20
5 6 5 1 0 -1 3 -1 -2 -6 -2 3 5 6 4 5 7 8 8 10 11 10 11 13 15 17 20 19 18 19 20 18 22 21 22 23 24 24

GFSNE_sfc_dewp_021.txt.gz
Dewpoint
33 34 32 31 31 29 29 28 27 24 21 20 21 23 23 25 28 30 32 34 35 35 40 39 38 37 40 41 44 44 45 49 52 53 54 54 55 56
31 32 29 28 28 29 28 28 26 24 21 18 16 18 20 17 24 27 27 33 33 35 38 39 38 37 38 40 41 44 43 44 49 52 52 53 55 54
30 28 27 27 25 24 24 22 20 19 17 17 17 18 20 22 22 24 24 28 30 33 34 35 38 37 38 39 39 42 43 43 42 48 51 52 53 51
26 26 26 23 24 24 22 21 20 19 18 15 16 17 21 22 23 25 23 24 24 29 29 30 34 37 38 38 39 39 41 42 41 42 47 49 49 50
26 26 25 25 23 21 21 19 19 18 19 17 17 18 18 19 25 24 24 26 23 26 28 29 32 36 38 38 38 39 40 41 40 39 42 43 46 48
27 26 24 22 20 19 19 20 18 21 20 19 18 17 18 19 21 23 23 23 23 20 23 25 29 34 37 37 38 38 40 41 40 39 38 38 40 42
22 19 18 20 22 21 19 19 19 19 19 20 17 15 15 16 16 19 22 24 28 24 22 22 24 29 34 35 37 37 39 41 40 40 38 37 37 38
16 16 16 18 18 21 21 22 22 23 24 20 18 21 20 19 19 18 24 22 20 25 23 22 24 24 28 30 31 34 38 41 39 39 39 38 37 37
16 15 15 14 18 17 19 22 24 23 23 24 23 19 17 17 19 23 23 24 22 26 23 21 26 25 26 24 29 31 36 39 39 38 38 38 37 36
16 16 16 16 17 19 24 21 19 17 19 21 24 23 21 21 21 24 25 23 23 23 23 23 25 27 28 28 28 30 33 38 39 39 39 38 36 36
18 17 17 16 20 24 21 21 17 16 19 21 24 25 26 26 26 24 24 23 23 17 19 22 24 26 28 29 31 28 32 36 38 38 37 37 35 35
19 16 17 18 21 20 20 21 19 18 17 19 20 22 24 24 26 24 21 24 22 25 21 23 21 22 24 30 29 30 31 32 35 35 35 35 34 33
17 15 17 19 18 18 19 21 21 20 21 20 19 19 19 21 24 26 23 22 21 19 19 20 19 21 22 24 29 31 30 32 33 34 33 34 35 34
19 17 19 17 17 18 18 19 18 20 21 21 21 20 21 22 22 24 28 28 25 21 20 22 22 19 20 22 22 29 31 32 32 33 34 32 32 35
21 17 16 16 16 15 16 17 17 18 19 19 19 19 22 24 27 29 29 28 30 29 27 28 27 26 24 24 21 25 28 30 33 34 35 33 33 35
18 16 16 15 14 16 15 15 15 15 17 18 18 20 22 24 26 28 28 29 29 28 32 33 32 30 28 24 23 25 28 30 31 33 34 35 35 35
17 17 15 14 12 13 14 13 12 11 14 17 18 18 19 21 23 25 27 28 28 28 29 31 33 32 31 28 26 25 27 28 30 32 31 30 32 34
15 15 14 15 14 11 13 13 12 9 11 15 17 17 17 19 20 22 23 24 25 25 26 28 31 29 29 31 32 31 28 27 28 30 30 29 28 31
16 16 17 15 14 11 10 11 10 10 10 13 15 16 17 18 20 20 21 21 21 22 23 26 28 29 26 25 27 29 31 28 30 29 29 28 27 28
16 16 17 16 14 11 10 10 10 11 10 9 14 15 16 17 18 17 19 19 19 18 19 20 23 24 25 26 28 28 27 31 29 28 26 29 30 28
18 16 18 16 15 14 15 14 14 13 11 11 11 13 14 14 15 16 17 16 16 15 15 17 21 23 25 28 28 27 29 24 27 30 29 28 27 26
22 19 18 17 18 17 17 16 14 14 13 11 11 13 14 14 13 15 16 16 15 15 14 17 20 23 25 23 22 25 26 28 25 24 24 24 27 24
23 22 21 20 19 18 16 16 14 15 13 10 10 11 13 13 12 14 14 15 14 13 14 16 19 21 22 22 22 24 24 25 26 25 27 23 25 24

GFSNE_sfc_dewp_024.txt.gz
Dewpoint
32 30 28 26 26 25 25 24 27 27 21 20 19 21 20 21 23 24 25 29 33 35 35 34 37 39 38 38 39 40 43 45 46 47 51 53 54 56
27 29 29 26 25 25 23 23 23 24 23 18 17 19 20 16 21 23 23 29 29 31 35 35 39 39 38 37 38 39 42 44 44 44 48 52 53 54
29 30 29 28 25 24 24 22 21 19 18 18 17 19 21 21 20 24 24 24 24 30 35 33 34 34 37 37 37 39 40 42 43 41 42 49 52 53
28 28 28 23 25 24 22 21 19 19 18 18 18 18 19 21 21 23 18 20 22 25 33 30 29 32 38 38 38 39 39 40 41 42 39 46 49 52
28 28 26 25 23 21 20 19 18 18 20 20 18 19 19 20 19 22 22 25 20 28 31 30 30 30 34 38 38 38 39 39 41 41 40 44 45 50
27 26 23 20 20 20 18 19 18 20 20 19 18 17 19 18 18 19 20 22 23 23 26 26 28 29 31 38 39 38 38 38 41 41 39 41 42 45
22 19 19 20 20 20 18 19 19 19 19 19 19 19 17 18 19 20 19 18 21 24 29 26 22 22 28 36 35 37 36 38 40 40 39 39 41 42
18 17 18 19 19 20 21 21 21 21 22 21 21 19 19 17 17 18 20 20 20 24 33 26 27 21 21 25 31 30 33 35 38 39 37 38 37 39
18 17 16 14 19 17 19 21 24 24 26 25 21 22 23 21 22 20 21 20 23 23 27 25 26 26 24 19 29 29 31 34 37 39 38 37 37 36
19 19 18 17 17 19 20 20 18 18 15 17 20 20 20 22 22 23 23 21 22 20 21 23 25 26 27 27 30 28 31 33 37 39 38 38 38 36
19 19 17 16 19 21 19 18 16 15 19 20 21 22 23 26 25 25 23 20 23 21 19 22 24 24 25 29 31 30 31 33 36 37 39 38 37 35
21 18 16 18 19 19 20 20 20 18 16 17 18 19 21 22 26 26 23 21 20 22 23 21 20 21 24 28 28 31 31 33 34 37 37 38 36 35
20 19 17 18 18 18 18 20 20 18 18 19 19 19 19 21 21 23 29 23 21 18 19 20 19 22 23 25 29 29 31 34 36 37 37 37 36 36
22 21 21 17 17 17 17 17 17 19 21 21 22 21 22 23 25 26 27 26 26 23 22 25 23 20 21 23 23 28 30 31 33 36 37 35 33 34
23 21 18 16 16 15 14 16 17 18 19 20 19 20 22 24 27 30 31 32 28 28 25 26 25 24 25 23 23 25 29 29 32 33 36 34 34 34
21 21 18 18 17 15 16 15 17 16 17 20 20 20 22 24 25 27 29 32 30 29 30 30 30 29 29 25 24 26 28 31 31 31 33 34 33 33
21 22 20 18 16 14 16 15 16 13 14 18 20 20 19 20 22 26 26 28 29 28 29 34 34 34 31 30 26 25 26 27 31 33 32 29 31 32
20 21 22 22 19 16 16 16 16 14 12 15 18 18 19 20 20 23 24 25 26 26 28 29 32 29 29 31 32 29 25 27 27 29 29 29 27 31
21 22 23 23 21 16 14 14 15 15 14 13 15 17 17 18 21 21 22 22 23 23 24 28 28 30 25 24 28 28 32 28 30 30 30 30 28 29
21 22 23 22 20 16 14 14 15 17 17 14 16 16 17 17 17 17 19 21 19 19 20 22 25 24 25 26 29 30 28 34 32 32 31 32 33 30
21 20 23 21 20 19 20 20 19 18 17 17 17 16 17 16 15 16 17 17 17 16 16 18 21 24 25 28 30 29 29 26 28 31 30 29 28 28
24 22 22 22 22 22 23 22 20 19 18 16 16 17 18 17 15 15 17 16 15 16 14 17 21 23 25 25 25 27 27 29 25 25 25 25 29 28
27 24 25 25 24 24 21 21 20 20 18 16 16 15 16 16 15 14 15 14 13 13 14 16 20 22 23 22 22 26 27 27 27 26 27 25 25 25

GFSNE_sfc_dewp_027.txt.gz
Dewpoint
39 38 33 31 32 30 27 26 27 27 23 22 23 24 24 25 27 28 28 29 31 32 32 31 31 33 33 37 38 37 38 39 40 42 45 46 48 53
35 33 31 32 31 30 26 26 22 24 22 20 19 22 23 18 24 27 26 31 30 32 33 32 33 33 34 37 38 37 38 38 39 41 43 44 45 50
32 30 32 31 29 28 28 23 23 22 20 20 19 22 22 23 22 24 25 26 26 30 31 33 34 36 35 33 36 37 38 38 38 40 43 44 43 47
31 30 29 25 28 24 22 21 21 20 20 18 19 21 22 22 23 24 20 18 23 27 32 31 34 34 34 33 37 39 39 39 38 39 41 42 40 45
30 29 27 25 22 21 21 20 19 16 20 21 20 22 21 20 21 22 22 22 19 27 30 32 34 33 33 33 35 37 39 39 38 38 40 41 39 45
28 26 23 21 21 21 18 19 18 18 18 19 18 20 19 22 23 22 23 24 21 15 22 28 33 33 33 33 34 36 39 39 37 37 40 39 39 42
24 20 21 20 19 21 18 18 19 18 18 18 19 20 21 19 19 21 22 21 20 23 25 28 31 32 29 32 30 36 36 34 36 37 39 38 40 42
20 20 19 22 22 23 22 21 21 20 22 23 20 17 16 19 24 25 23 21 17 25 28 31 31 34 27 28 34 32 30 31 34 37 39 38 38 39
21 20 18 14 21 19 21 21 21 24 24 23 22 22 24 20 20 22 22 23 22 23 25 27 30 30 26 21 30 30 31 32 33 36 39 38 38 38
22 21 20 19 19 20 19 18 16 15 16 14 19 19 19 19 19 21 22 20 22 22 22 24 27 28 30 28 30 32 31 32 34 37 38 38 37 37
22 21 19 17 20 20 18 18 16 15 17 21 19 22 24 25 25 25 26 23 24 20 24 28 27 27 29 30 31 30 32 31 34 36 37 38 37 37
23 20 20 17 19 18 19 19 18 16 13 14 18 20 21 22 26 25 27 26 24 22 25 28 22 22 24 30 31 33 34 32 34 35 37 38 37 39
22 20 21 20 18 18 18 19 20 17 17 19 20 21 21 21 22 25 26 28 27 23 22 22 22 22 23 26 30 32 33 35 36 35 36 37 37 39
24 22 24 21 18 18 17 17 17 19 22 20 21 21 21 23 23 25 30 33 31 26 24 24 25 22 21 23 22 29 31 34 37 36 34 36 37 35
25 23 21 20 17 18 15 16 19 19 18 19 20 20 21 22 24 27 29 29 34 31 24 27 27 24 23 24 23 26 26 29 35 36 37 37 36 36
26 25 22 21 20 21 20 19 19 19 16 17 19 20 23 23 24 25 27 28 30 31 30 30 29 28 27 26 25 26 28 29 31 34 35 37 37 36
23 24 23 21 20 19 19 18 18 17 16 16 17 18 19 20 21 24 25 26 26 26 28 32 34 33 31 29 28 25 26 27 32 32 32 30 32 36
21 22 24 24 23 20 19 18 19 18 16 16 16 16 16 17 19 22 22 23 24 24 25 27 32 29 29 30 31 31 24 27 30 32 30 30 30 33
22 22 24 25 24 20 18 17 17 18 18 17 17 18 17 16 19 18 20 21 21 21 22 26 29 26 26 24 29 29 29 32 30 30 30 30 29 33
22 22 23 24 22 20 18 18 18 19 19 17 18 19 19 18 17 16 16 18 18 18 19 20 23 22 24 25 29 28 28 32 32 31 30 32 31 29
24 24 27 23 22 22 23 23 22 21 20 20 19 19 19 19 17 15 16 17 17 14 15 16 20 25 25 28 28 27 28 26 28 30 31 30 28 28
27 25 25 24 25 24 26 25 23 23 21 20 20 20 20 19 19 16 16 15 14 14 13 15 21 23 27 26 27 26 27 27 26 26 26 26 27 28
29 28 29 29 28 26 24 24 22 23 21 20 19 19 18 18 19 18 16 14 13 12 12 14 18 23 25 21 22 27 26 26 25 25 26 26 26 26

GFSNE_sfc_dewp_030.txt.gz
Dewpoint
38 38 38 38 36 33 33 31 29 26 22 22 23 23 27 25 27 26 26 30 33 33 33 32 31 31 31 31 33 34 36 38 37 38 39 40 41 45
38 37 36 35 33 33 32 31 28 25 21 21 21 22 24 21 24 24 24 28 30 31 32 32 33 34 33 33 31 33 36 36 36 38 38 39 40 43
36 35 35 32 31 31 31 27 24 23 20 20 20 22 21 23 23 24 25 23 23 29 31 32 33 33 34 35 35 35 34 33 35 37 38 39 40 42
33 33 31 27 28 26 24 23 22 21 19 18 20 21 22 22 22 22 21 20 22 26 30 31 32 33 34 36 35 34 34 35 37 38 38 38 39 42
32 30 29 26 23 23 22 20 21 19 20 19 18 20 21 21 21 23 23 24 23 27 27 30 30 32 34 35 34 35 34 35 37 39 37 36 38 41
30 29 25 23 22 20 18 19 18 19 19 19 19 19 19 21 23 21 22 23 23 21 24 27 31 32 34 35 36 35 34 35 38 38 37 37 39 39
27 24 22 22 21 20 18 19 20 20 19 17 18 20 20 18 17 24 26 23 22 24 24 27 30 30 32 34 35 34 34 34 36 35 36 38 39 39
23 22 22 25 25 25 25 22 22 20 20 21 21 20 19 22 24 21 20 20 19 24 25 24 29 29 32 34 35 34 35 36 33 33 35 37 39 38
23 22 21 17 24 21 22 21 21 22 23 22 21 23 23 19 19 18 19 20 21 22 22 21 25 26 28 25 32 33 35 33 33 34 36 38 37 37
24 23 22 21 22 20 20 18 18 17 17 16 18 17 17 19 20 20 21 21 23 23 23 21 24 26 28 28 32 32 32 33 33 34 36 38 37 37
24 24 22 20 21 20 19 19 18 17 18 20 19 20 23 26 26 24 24 23 22 22 24 24 25 27 26 26 29 31 32 33 33 33 35 37 37 37
25 23 22 20 18 19 19 19 17 18 16 15 18 21 22 24 27 26 28 25 26 24 24 25 25 25 23 27 31 33 29 32 33 33 34 37 37 36
25 24 25 21 21 20 18 20 19 19 18 19 20 20 22 23 22 24 25 27 27 25 26 26 24 24 24 24 29 31 31 29 33 33 35 36 38 37
24 25 25 23 22 20 19 19 18 20 19 18 19 20 21 22 23 23 25 27 28 31 32 28 25 25 24 23 23 28 31 28 29 33 33 35 36 36
25 26 25 23 23 22 22 20 19 20 18 14 17 18 20 22 23 24 24 25 27 31 33 27 25 26 25 24 24 24 27 30 29 33 32 32 32 33
25 27 24 22 20 20 20 22 22 21 18 16 16 18 20 21 21 23 22 24 24 25 29 32 31 28 25 26 25 23 28 28 31 32 33 33 34 35
20 21 20 22 22 21 21 21 21 21 18 17 15 17 18 18 18 20 22 23 22 22 24 27 31 32 30 29 23 26 25 28 32 31 30 30 31 32
21 18 17 20 20 20 18 19 19 18 19 18 17 17 18 17 17 18 21 22 20 20 22 24 29 26 29 28 30 27 26 25 27 28 29 28 29 32
20 19 20 21 24 22 20 19 16 17 17 18 16 16 17 19 18 18 18 19 18 18 20 23 26 22 21 21 27 29 26 26 26 23 25 25 28 31
25 22 21 22 22 22 21 19 18 16 16 16 13 17 16 17 18 17 16 17 17 17 18 19 21 21 21 22 25 24 28 29 29 23 23 25 29 31
24 24 23 23 24 22 20 20 17 15 14 10 12 16 17 18 14 19 13 14 15 15 14 15 18 23 24 26 25 26 25 27 27 24 26 23 23 25
24 25 25 24 25 25 22 20 18 15 17 15 15 11 16 12 12 17 15 9 15 15 14 15 17 22 27 28 24 22 24 22 26 27 27 25 21 24
26 25 25 25 25 27 22 20 21 18 17 14 14 13 10 8 15 18 17 17 14 15 13 13 17 20 24 25 23 24 21 22 23 23 21 27 27 28

GFSNE_sfc_dewp_033.txt.gz
Dewpoint
36 37 37 38 38 38 35 33 31 28 26 24 23 24 25 25 26 26 26 28 33 32 31 29 28 29 29 30 31 32 33 33 35 36 40 38 39 40
36 35 35 36 37 37 34 31 29 27 23 22 21 21 23 22 24 25 25 28 29 31 31 32 32 30 28 30 31 31 32 33 33 35 36 36 38 39
34 34 34 34 33 31 28 25 23 22 19 20 21 22 21 22 22 24 25 24 24 29 31 31 32 32 33 33 33 32 33 32 33 33 33 35 36 38
32 31 31 27 25 24 23 20 20 20 19 18 19 20 20 22 22 22 22 21 23 26 31 31 31 31 31 32 34 35 35 35 34 33 32 33 36 37
31 30 29 26 21 21 19 19 19 18 20 19 18 20 20 21 20 22 23 24 23 27 27 29 29 31 32 33 33 35 35 35 35 35 36 37 38 36
28 28 27 22 20 18 17 17 18 19 19 19 18 18 19 20 22 20 23 24 24 21 24 27 29 30 29 31 33 33 34 36 36 35 37 38 37 38
26 25 23 23 25 21 17 18 20 19 20 19 18 18 19 20 20 25 21 19 19 21 22 24 25 26 28 30 32 33 36 36 36 35 35 37 37 38
23 23 22 24 26 26 24 23 21 20 19 18 19 18 19 23 23 20 18 17 16 21 23 22 24 24 26 30 32 32 36 34 37 35 33 35 36 36
24 23 21 22 23 20 20 20 19 19 22 20 18 19 17 17 18 19 19 20 20 20 22 22 24 23 25 25 29 33 33 34 34 34 35 35 36 37
24 23 22 21 21 20 20 18 18 18 18 17 18 17 17 19 20 21 22 22 23 23 24 23 24 23 26 27 30 31 33 33 33 34 34 34 36 37
25 24 24 20 21 20 19 18 18 18 18 20 20 22 23 24 24 26 25 24 22 22 24 25 23 24 24 24 27 31 33 34 34 33 34 33 36 37
25 23 23 20 20 19 20 18 17 16 18 17 18 20 22 23 26 24 24 23 22 22 23 27 24 23 20 24 27 29 30 33 33 33 33 32 35 36
25 24 23 22 22 22 21 20 18 19 20 19 19 19 20 22 22 23 24 24 24 22 25 29 26 22 23 23 26 28 30 32 28 31 33 34 36 36
24 24 24 26 24 23 22 22 22 22 15 17 17 17 19 19 21 22 24 25 25 25 30 31 28 24 23 22 22 26 27 31 31 32 33 34 36 37
24 24 26 26 25 25 25 24 22 19 15 12 14 16 17 19 21 22 23 23 25 26 25 32 29 28 26 24 23 23 25 28 32 30 32 32 32 33
23 24 23 24 21 21 20 22 21 19 17 16 13 15 18 18 18 19 20 21 22 22 24 27 29 30 28 25 26 24 25 26 32 32 32 32 32 32
18 24 20 18 19 22 21 21 20 19 17 13 12 14 17 18 18 18 19 20 18 20 20 22 26 27 31 30 27 24 25 24 30 32 32 31 32 32
24 18 10 8 15 20 19 18 17 16 17 16 12 15 15 15 17 18 19 17 18 18 18 21 24 21 24 27 30 26 25 25 26 27 29 29 31 32
16 15 10 13 15 20 21 18 16 15 15 15 13 11 12 16 15 17 16 16 16 17 18 20 21 20 18 19 27 28 25 24 27 22 23 26 29 31
22 19 18 17 19 21 20 19 16 13 13 13 9 6 5 10 11 14 17 8 15 16 15 16 17 17 20 21 23 23 27 26 27 22 21 28 29 30
23 23 22 21 20 21 20 18 13 9 7 4 6 6 8 9 8 11 15 10 10 15 13 13 15 19 24 28 23 22 21 27 27 24 26 23 22 24
24 23 24 23 22 23 24 23 16 11 9 6 5 8 2 4 4 6 9 8 13 12 14 13 15 20 24 25 24 21 23 22 26 27 28 26 23 23
25 24 24 24 24 22 21 22 22 17 16 13 11 7 -1 4 6 7 9 12 14 11 13 12 14 17 20 21 22 23 21 21 24 23 22 27 28 29

GFSNE_sfc_dewp_036.txt.gz
Dewpoint
35 34 35 36 37 37 38 38 34 27 25 25 22 23 24 24 25 26 24 27 28 28 28 28 28 29 29 30 31 31 32 34 35 35 35 35 36 39
35 33 33 35 37 37 36 34 31 28 22 21 20 21 22 20 22 23 24 26 27 28 29 29 29 29 29 30 30 30 31 31 32 33 34 34 35 37
33 34 33 34 33 31 27 25 22 21 18 19 20 21 20 21 21 23 24 23 25 27 28 28 31 30 31 30 29 29 30 31 32 34 34 34 36 37
31 30 30 28 26 24 22 20 19 20 19 17 18 18 19 20 21 22 21 21 24 25 26 27 26 27 31 31 32 32 32 33 33 34 34 34 33 33
31 29 29 29 22 23 20 19 19 18 19 19 18 19 19 20 20 22 22 22 24 24 22 23 23 26 28 28 29 30 32 32 34 36 36 35 34 33
27 26 25 24 22 20 18 17 18 18 19 19 19 18 18 19 21 21 22 22 20 17 20 22 25 27 27 27 27 28 31 33 33 35 36 35 35 37
26 24 23 23 25 22 18 18 19 19 19 19 18 18 18 18 20 22 22 18 18 20 19 22 25 23 25 27 27 28 31 32 36 36 36 36 36 37
22 24 23 24 26 27 25 24 21 19 18 17 18 17 17 18 21 18 18 18 17 20 22 22 23 23 25 27 28 29 31 31 35 36 35 35 36 35
23 24 22 22 24 21 22 20 19 19 21 20 18 18 16 16 16 18 20 20 21 22 22 22 23 23 25 24 28 29 31 33 33 34 35 35 35 34
24 24 22 22 22 20 19 18 18 17 18 17 18 18 17 20 21 23 25 26 24 23 24 22 23 23 25 25 29 31 32 33 34 34 35 34 34 34
25 25 24 22 23 23 20 19 18 17 16 19 20 22 22 22 24 25 22 22 19 20 22 24 23 23 25 25 26 31 31 33 33 34 35 34 34 34
25 25 25 22 24 22 21 19 17 15 16 18 19 19 21 21 23 23 23 21 21 19 23 23 23 25 22 22 25 25 26 31 33 33 34 34 34 31
25 24 24 24 23 23 24 21 18 18 20 20 19 19 19 19 20 21 23 23 22 20 22 25 26 26 26 22 23 25 25 28 28 29 32 33 33 33
24 25 24 26 25 26 24 24 24 23 17 16 17 17 17 18 18 20 22 23 23 23 24 26 27 28 26 24 21 23 26 27 31 32 32 33 34 35
25 25 25 25 26 26 26 26 22 20 18 11 15 15 16 18 20 20 20 21 22 24 23 24 25 26 26 26 24 22 24 27 30 32 32 32 32 34
25 26 23 24 20 21 21 23 22 20 19 17 14 14 16 17 17 19 18 19 20 20 22 23 24 26 24 27 27 22 23 25 27 31 32 32 32 32
24 22 21 20 22 21 21 21 21 20 18 15 12 13 15 17 17 18 18 18 16 17 18 20 23 24 24 29 27 26 26 25 27 31 32 31 32 32
24 22 22 20 20 19 17 18 18 17 18 16 12 14 13 13 14 17 18 15 15 16 17 19 20 19 21 24 29 26 25 26 26 27 29 30 31 31
26 20 21 16 16 18 19 18 17 17 16 16 15 13 10 13 12 14 15 15 14 15 17 17 17 17 15 13 23 28 24 25 25 21 26 28 29 29
25 22 20 17 17 18 19 19 19 14 14 14 10 6 1 8 9 11 13 9 12 15 15 15 14 16 16 13 19 20 26 24 27 22 26 28 29 31
26 25 22 21 19 20 19 16 14 13 13 9 9 6 -1 8 7 8 7 10 9 15 13 12 13 18 24 25 19 18 18 27 28 25 26 20 21 25
26 25 24 24 22 21 19 18 16 16 16 12 8 2 -1 4 4 3 2 8 15 10 13 13 15 17 22 23 22 16 19 18 24 27 28 26 20 18
27 26 25 24 25 24 22 21 20 20 19 18 15 10 2 2 7 3 2 8 13 9 11 11 13 15 17 21 22 21 20 18 21 20 20 27 29 29

GFSNE_sfc_dewp_039.txt.gz
Dewpoint
34 34 35 36 37 38 38 38 34 30 28 26 22 22 23 23 23 23 23 25 26 26 28 28 29 29 29 30 31 31 32 33 33 33 35 35 37 38
35 34 34 35 35 36 35 34 35 31 24 23 20 21 21 19 21 22 23 26 26 27 27 27 28 29 30 30 30 30 30 31 32 33 33 34 34 36
34 34 33 33 34 34 30 27 23 21 19 19 20 20 19 19 20 22 23 23 24 26 27 27 27 28 27 28 29 30 30 30 30 30 31 33 34 35
31 32 32 31 31 27 24 22 20 20 19 16 18 19 19 19 20 21 21 21 23 25 25 24 24 24 25 25 28 30 30 30 30 32 33 33 34 35
32 31 30 29 28 24 22 20 20 18 19 18 18 19 19 19 19 21 22 22 23 23 22 23 24 25 27 27 29 29 28 28 30 32 33 33 34 35
31 28 26 26 24 22 21 19 18 18 19 19 18 17 18 19 20 20 19 21 18 17 21 23 24 26 27 27 28 29 29 29 29 30 33 34 35 36
28 26 25 24 25 22 19 18 18 19 19 18 17 16 17 17 19 18 18 17 18 20 20 20 23 23 24 26 27 29 29 29 30 31 33 35 36 37
25 23 23 26 27 30 27 24 22 19 18 16 16 16 16 18 18 17 17 18 17 21 22 22 24 23 25 26 28 29 30 30 30 31 32 33 35 36
23 22 23 21 25 25 28 25 22 21 22 18 17 17 17 16 17 19 20 21 21 22 23 21 22 22 23 23 28 29 30 31 32 33 34 35 34 34
23 24 23 22 24 21 20 19 18 18 17 15 17 18 18 19 20 21 24 24 22 22 22 20 22 23 24 25 28 29 30 32 32 33 34 35 35 34
24 25 24 23 25 26 21 20 19 19 17 19 21 21 22 21 21 20 20 20 17 17 21 22 21 21 23 25 26 28 30 30 30 32 33 34 35 35
24 25 28 25 25 26 23 20 19 18 15 16 19 19 19 20 21 21 21 19 18 17 22 20 20 24 22 23 23 24 25 27 30 30 32 33 34 31
26 25 25 27 26 26 25 21 20 19 19 19 20 19 19 19 18 19 21 20 19 17 20 23 22 22 26 24 23 24 25 25 26 28 32 32 33 33
25 25 26 27 27 26 25 26 26 23 20 19 18 18 17 18 17 19 21 21 21 21 23 23 23 23 23 21 21 23 23 26 27 30 31 33 33 34
27 26 27 27 27 26 27 28 24 21 19 12 16 17 16 17 19 21 20 20 20 21 21 23 23 24 23 21 23 25 22 24 26 28 31 32 32 32
28 27 27 27 25 23 22 25 22 20 19 18 16 15 16 17 16 19 17 18 18 17 20 23 23 23 21 22 24 25 25 25 26 28 32 32 32 32
29 28 25 24 23 22 22 22 21 19 17 14 12 13 14 17 15 16 17 17 12 15 16 19 20 21 21 23 24 27 26 25 25 27 29 30 32 32
28 24 24 24 22 22 20 20 17 17 18 17 13 14 15 14 13 16 17 13 14 15 15 17 18 17 19 21 28 25 24 24 24 27 28 29 29 30
28 26 23 23 22 21 21 19 18 17 17 16 15 13 14 12 11 13 12 12 12 15 15 16 16 16 14 12 19 28 24 24 24 26 28 28 27 28
30 26 23 24 22 21 20 19 19 17 13 14 11 13 10 10 8 11 11 5 10 14 14 14 13 14 15 12 16 18 27 25 26 26 27 26 27 30
27 27 25 24 23 22 21 20 19 15 9 6 13 12 8 10 8 10 6 6 7 15 13 12 12 17 20 24 17 17 20 26 28 25 25 22 24 24
27 26 26 25 24 23 21 20 17 14 11 11 12 13 11 8 9 6 -1 1 10 10 12 13 14 16 19 22 21 18 19 19 23 26 28 28 25 22
28 28 27 26 25 24 23 21 20 20 18 17 16 15 10 7 9 6 1 7 10 8 9 10 12 15 15 17 20 20 22 20 20 19 20 27 29 29

GFSNE_sfc_dewp_042.txt.gz
Dewpoint
35 34 34 34 36 37 37 37 33 28 28 29 28 24 23 23 23 24 23 25 27 27 27 28 29 29 30 31 31 32 33 33 33 35 34 34 35 37
35 34 34 35 35 35 35 35 34 31 27 27 23 22 21 19 22 22 22 26 26 27 27 27 28 28 28 29 30 29 30 31 32 32 32 33 35 36
34 33 33 33 33 34 33 32 30 29 25 20 21 20 19 19 20 21 23 22 23 26 26 26 26 26 26 26 27 28 28 30 30 31 32 32 32 33
32 33 33 33 32 32 30 26 23 21 19 17 18 19 19 19 20 20 19 20 22 24 26 25 24 25 26 26 26 27 28 29 30 30 30 31 32 32
31 31 31 30 28 27 24 23 21 19 19 18 18 19 20 19 18 20 20 21 21 23 22 23 25 26 27 27 28 29 29 28 28 29 29 30 31 32
32 32 31 29 27 26 23 22 20 18 18 18 19 18 18 18 19 19 18 17 17 18 21 23 25 26 27 27 28 29 29 30 30 29 30 31 32 33
31 30 28 27 28 26 21 20 18 18 19 19 17 16 14 15 14 18 17 18 19 20 20 20 23 23 24 26 27 28 29 30 31 31 31 31 32 34
29 27 25 28 30 31 30 26 21 20 20 17 16 15 13 15 19 17 17 18 15 21 22 22 23 23 24 26 26 27 28 29 30 31 32 32 33 33
27 25 23 22 27 23 28 29 27 25 22 20 17 15 16 17 17 18 19 20 20 21 22 20 21 22 22 22 26 28 29 30 31 32 32 33 34 34
25 24 23 23 24 24 24 24 21 19 20 19 17 16 18 19 19 19 21 21 20 20 20 18 21 22 23 23 26 28 29 30 31 31 31 33 34 34
24 24 24 24 27 28 23 21 19 18 21 23 21 22 22 22 22 21 18 18 17 15 18 20 22 21 22 24 27 28 29 30 30 29 30 31 32 33
25 25 28 26 27 28 26 22 20 19 19 15 16 18 21 20 22 20 19 18 17 15 21 19 18 21 20 25 26 28 29 28 28 29 30 30 31 31
26 26 26 29 30 29 28 23 21 20 20 17 17 19 20 19 19 19 19 20 18 16 18 21 20 20 21 22 24 25 27 28 28 29 29 30 32 32
27 27 27 29 29 29 28 27 25 24 22 20 20 20 20 19 18 18 19 21 21 20 21 21 21 20 20 20 19 23 25 28 28 28 30 31 32 34
29 29 29 28 29 30 30 28 26 25 22 20 19 19 19 19 18 19 20 20 20 21 16 21 22 22 22 20 19 22 23 27 28 28 29 30 32 32
28 30 28 27 27 29 28 29 28 25 23 21 19 19 18 17 18 19 18 18 18 18 18 21 21 22 20 20 20 22 27 26 28 28 29 30 33 33
25 28 28 27 26 25 25 25 25 23 21 19 17 17 16 16 17 18 18 18 16 15 16 18 19 20 20 20 20 24 25 26 26 27 28 29 32 32
28 28 26 24 24 24 24 24 24 22 22 20 18 17 17 16 16 16 18 16 15 15 16 16 18 17 17 20 26 24 23 22 24 26 29 28 28 30
29 28 27 26 26 24 24 24 22 21 21 20 19 17 16 16 14 15 16 15 14 15 16 17 15 14 14 13 18 26 23 23 25 27 28 28 28 29
30 29 28 27 26 25 24 23 23 21 18 18 16 15 14 14 14 14 15 12 12 14 15 15 13 13 15 15 17 20 25 25 26 25 27 27 28 29
29 28 28 28 27 26 25 24 23 21 18 15 16 13 12 14 12 13 13 9 9 14 14 13 13 16 18 23 20 20 24 27 28 26 25 25 25 25
29 28 28 27 27 25 25 24 22 20 18 14 14 14 12 13 14 13 10 11 13 14 14 14 14 14 17 19 19 21 23 24 24 26 27 28 25 22
28 28 28 28 28 26 25 23 21 20 19 18 17 15 13 14 15 15 12 11 12 13 12 12 12 13 13 15 18 19 21 22 23 22 23 26 28 28

GFSNE_sfc_dewp_045.txt.gz
Dewpoint
41 41 39 36 36 35 34 35 34 29 23 24 27 31 28 26 23 25 23 22 25 27 27 28 29 29 30 30 30 31 32 32 33 34 35 34 37 36
38 38 37 36 36 37 36 35 33 32 26 23 24 26 25 18 21 24 21 23 23 25 27 27 28 29 29 29 29 30 30 30 31 32 32 34 35 35
37 37 36 36 35 35 35 34 32 31 29 25 23 23 23 22 21 21 18 18 19 23 25 26 26 27 26 26 27 28 28 29 29 30 31 32 33 34
36 36 35 33 36 35 34 33 31 30 27 23 21 20 21 22 22 20 14 14 19 20 23 25 25 25 26 27 28 28 29 29 29 29 30 31 31 32
36 35 35 35 34 33 33 31 29 25 25 22 20 20 20 20 18 16 14 19 14 20 21 22 23 26 27 27 27 28 29 30 30 29 29 29 30 30
35 35 34 34 33 33 31 29 27 24 22 20 19 18 19 18 17 12 13 14 14 14 19 21 24 25 25 25 27 28 29 29 30 30 30 31 31 31
35 34 35 35 35 33 27 27 25 23 21 20 18 18 17 16 12 12 14 14 16 17 18 18 18 19 21 23 24 26 27 29 30 31 31 31 32 32
33 34 34 33 33 32 32 30 25 24 24 21 20 18 17 17 14 14 15 15 13 17 18 18 17 18 20 23 24 26 27 29 30 30 30 31 33 33
33 32 31 27 29 27 29 31 30 27 25 24 23 20 21 16 13 15 16 16 16 16 17 17 18 19 21 18 24 26 28 30 30 30 31 33 33 33
32 32 32 30 27 26 25 30 26 25 25 22 21 21 20 15 17 18 20 19 16 15 16 18 19 21 21 22 25 26 29 28 28 30 31 31 32 32
30 30 29 28 28 29 32 29 24 23 24 25 24 24 23 22 23 21 21 18 19 14 16 19 19 19 20 23 25 26 26 27 28 29 29 29 30 31
31 29 29 28 29 30 32 30 27 23 21 20 20 21 21 21 23 21 19 20 18 17 15 18 16 17 18 21 24 25 27 27 28 29 30 30 30 31
31 30 30 29 30 30 30 33 30 26 24 22 20 17 15 17 19 19 19 20 19 15 15 19 17 16 17 17 20 23 25 28 29 30 29 30 31 32
32 32 32 31 31 30 31 32 30 28 27 26 25 21 21 21 20 19 20 20 19 18 19 19 20 18 18 18 17 21 24 27 31 30 31 31 32 32
34 33 32 31 31 30 30 31 31 29 29 27 25 23 23 21 21 22 21 21 20 19 16 19 20 18 18 18 18 20 21 25 30 30 33 32 33 34
32 34 33 31 31 31 30 32 32 32 29 28 26 24 24 24 24 23 22 21 20 19 19 21 21 20 19 17 17 20 23 27 29 29 30 32 34 34
32 33 33 31 30 30 29 30 30 30 29 29 27 25 24 23 23 23 22 21 19 17 17 18 19 19 20 21 22 22 26 25 25 28 28 31 33 33
29 29 30 32 30 29 28 27 27 28 28 28 28 26 24 23 23 23 22 21 19 17 17 17 19 18 20 22 23 23 25 25 26 27 30 30 30 32
28 27 30 32 30 29 27 25 26 28 29 27 27 26 26 24 24 23 23 21 19 18 16 18 18 16 18 18 22 22 25 24 29 28 29 30 30 31
25 29 30 32 31 29 28 27 27 27 27 27 27 27 27 25 24 23 21 21 20 17 15 15 15 14 17 20 21 24 23 27 26 26 26 29 30 29
19 26 30 31 31 30 30 30 28 28 28 27 27 26 25 23 24 23 22 19 18 16 14 14 15 16 18 22 23 25 29 27 28 26 25 26 26 26
17 16 17 30 32 31 31 30 29 29 27 26 27 27 25 25 24 23 23 23 19 18 15 16 14 13 18 18 20 23 24 28 27 25 26 28 26 23
14 14 17 18 22 31 30 30 28 28 27 26 26 25 25 23 24 24 24 22 20 18 16 15 14 13 14 15 18 21 22 23 24 24 26 25 27 27

GFSNE_sfc_dewp_048.txt.gz
Dewpoint
43 41 38 35 35 33 32 31 33 32 26 24 23 27 28 28 29 26 26 28 26 26 25 27 28 29 30 30 31 31 32 32 33 34 35 35 35 36
41 41 38 35 34 34 33 33 31 29 27 25 23 26 27 23 26 24 25 26 27 26 24 25 27 28 28 29 29 29 30 30 30 31 31 32 34 34
41 39 37 36 33 33 34 33 31 29 26 25 24 25 27 26 25 24 24 22 18 26 24 24 25 26 27 27 27 28 29 29 30 30 30 31 32 33
39 37 35 30 34 35 33 33 32 31 28 26 25 23 24 25 25 24 19 13 16 22 23 23 24 24 26 27 28 28 28 29 30 30 30 31 31 32
38 36 34 34 34 34 34 34 32 28 27 25 23 23 23 22 22 22 20 18 13 20 24 26 22 24 25 26 27 28 28 28 29 30 30 30 30 31
37 36 35 35 34 34 32 34 32 29 27 25 23 22 21 22 20 18 16 13 14 10 19 24 24 24 26 26 26 26 27 28 29 29 30 31 32 31
39 37 36 36 37 35 31 32 31 29 27 24 22 21 20 19 17 17 14 13 16 17 16 17 18 18 20 24 25 25 26 27 28 29 30 30 32 32
34 33 33 35 36 36 35 34 32 31 29 26 25 23 22 20 18 18 13 13 14 18 17 18 17 17 18 21 27 25 25 26 29 30 31 30 31 32
33 32 29 26 33 34 34 33 32 30 27 28 28 26 24 21 20 18 15 16 16 17 17 16 19 19 19 16 27 26 27 28 30 29 29 31 32 33
32 31 30 30 31 32 32 30 29 29 30 28 27 25 23 22 22 18 19 20 19 18 18 18 19 20 21 21 25 26 26 28 27 28 29 30 32 32
30 30 30 30 31 33 31 30 28 29 31 29 30 29 25 23 22 21 21 20 22 16 18 17 19 19 19 21 23 26 27 28 28 29 28 29 31 32
32 30 31 30 31 31 30 30 30 28 28 28 25 25 26 25 26 23 20 21 20 19 17 18 15 16 18 21 22 23 24 26 29 30 30 31 31 31
32 31 31 32 31 31 30 31 32 30 30 32 29 23 22 21 19 21 21 20 21 18 19 20 18 17 18 17 20 21 25 27 29 30 31 31 32 32
32 34 34 33 33 32 31 30 30 31 34 34 31 27 24 22 19 19 20 20 20 20 21 19 21 18 18 18 16 19 23 28 30 31 32 31 32 32
30 32 31 32 34 33 32 31 31 33 33 32 31 28 27 25 23 23 23 22 22 22 18 21 21 19 19 19 17 18 20 24 28 31 32 33 33 35
27 30 29 30 31 32 34 33 34 34 33 32 31 29 29 29 25 24 23 23 23 23 21 22 22 21 21 19 17 20 22 25 29 30 31 33 35 35
26 29 29 28 29 29 32 34 34 33 32 33 32 31 31 27 27 25 25 23 22 21 20 19 19 21 21 20 22 22 25 25 28 31 30 31 34 34
26 26 29 31 29 26 29 32 33 31 30 31 32 31 30 29 27 25 24 24 22 20 20 18 20 20 19 22 26 23 24 25 26 28 31 30 31 34
22 23 28 31 31 26 28 30 31 31 30 29 30 31 31 29 28 26 26 23 22 20 19 19 20 20 17 18 24 24 25 24 25 26 27 29 31 32
18 18 21 24 23 25 31 31 32 32 30 30 30 31 31 29 29 25 23 25 22 19 19 16 16 17 17 20 22 25 26 28 26 25 25 28 30 29
15 16 17 19 21 21 30 34 32 32 32 31 30 30 31 30 28 26 24 23 22 19 17 15 16 18 16 21 23 27 30 27 27 27 25 25 25 27
15 14 15 16 19 21 22 28 33 32 32 31 31 31 31 30 28 25 26 25 21 21 18 17 16 15 16 17 18 24 25 28 28 26 26 27 26 23
14 14 14 16 17 17 18 21 24 32 31 30 30 30 31 29 27 26 26 23 23 20 18 17 15 15 14 14 16 19 25 23 23 25 30 25 25 26

GFSNE_sfc_dewp_051.txt.gz
Dewpoint
44 44 42 41 42 39 35 33 34 33 29 29 27 29 27 28 31 30 29 32 34 31 30 27 27 28 30 30 31 31 32 32 32 32 33 33 34 35
44 42 42 42 41 37 35 34 34 33 30 27 26 28 29 22 29 28 28 33 32 32 33 29 25 27 28 29 29 30 30 31 31 31 31 32 33 33
43 42 41 42 38 38 37 35 34 33 29 29 28 30 30 30 27 28 28 27 26 31 32 29 28 26 26 27 27 28 29 29 29 30 30 31 32 34
42 41 42 40 40 39 37 37 35 34 31 31 30 29 29 29 30 29 23 19 22 25 30 30 28 27 26 25 27 28 28 28 29 29 29 30 31 31
41 41 42 40 40 39 37 36 35 31 34 33 31 29 28 27 26 28 26 26 18 26 30 29 29 28 26 27 27 28 28 28 28 28 29 30 31 31
42 42 41 40 39 38 37 37 35 35 34 32 30 29 28 27 26 23 23 24 19 11 20 25 28 27 29 29 30 28 29 28 27 28 29 31 31 31
42 41 41 40 38 37 33 37 36 34 34 33 29 28 26 24 24 23 23 20 21 20 19 19 20 20 22 26 26 31 28 26 27 27 29 30 30 31
40 40 39 35 35 35 35 36 35 36 35 33 30 30 28 26 28 26 22 20 17 20 20 21 20 19 20 23 28 26 26 26 27 28 30 30 30 32
34 33 31 27 31 29 33 35 35 34 31 32 31 31 30 29 30 27 22 22 19 18 21 20 24 23 20 16 28 29 29 29 27 29 29 29 31 32
32 31 32 32 33 32 32 33 33 34 33 29 29 29 30 31 31 24 24 21 20 21 22 22 23 22 24 23 26 29 29 29 28 29 29 30 30 31
30 30 30 31 32 33 32 33 32 32 30 33 33 33 28 24 23 25 24 22 25 18 22 22 21 21 22 23 25 25 28 29 29 30 30 30 31 31
32 31 31 31 31 31 33 33 31 30 30 29 31 31 29 28 27 24 24 24 23 22 21 22 18 18 19 22 22 26 27 28 29 30 30 31 31 31
30 31 33 32 33 33 33 34 33 32 31 31 30 30 33 29 27 27 25 23 24 20 21 21 20 18 19 19 21 25 26 28 29 30 30 31 32 31
24 28 29 29 29 28 30 32 34 33 35 34 32 32 33 33 30 27 26 25 24 23 23 21 25 20 19 19 17 22 25 28 29 30 32 32 32 32
25 26 26 26 27 29 30 31 32 33 33 32 32 32 31 30 30 31 29 26 25 25 18 22 25 21 21 21 19 21 22 25 30 31 33 33 32 34
23 25 24 26 26 26 27 29 31 31 32 32 33 33 32 32 33 31 29 27 26 25 24 27 26 23 22 19 21 22 24 25 29 31 31 33 34 35
24 25 27 28 28 28 28 27 28 30 31 33 33 34 31 32 33 31 29 27 26 24 23 24 25 25 24 22 23 22 25 27 28 31 30 31 33 35
21 23 24 26 25 24 26 26 29 29 31 33 33 32 31 31 31 31 29 28 24 23 23 21 22 20 21 23 26 25 25 25 26 27 29 29 29 35
19 18 22 23 22 21 22 24 23 26 33 33 33 32 32 30 31 30 29 28 25 23 21 22 21 19 17 17 22 24 25 24 25 27 28 28 28 32
15 15 17 19 19 19 20 21 23 21 33 32 33 32 33 31 31 30 29 29 25 22 21 18 18 17 19 20 21 25 27 27 26 25 25 27 29 31
13 13 15 16 18 19 20 21 20 20 31 32 32 31 32 30 30 30 30 28 27 21 19 17 17 21 18 19 21 24 30 30 28 26 24 25 24 26
14 12 13 15 17 18 19 20 18 20 22 32 32 32 32 32 30 30 29 28 25 24 19 18 18 16 17 16 17 22 22 29 28 28 27 25 24 22
14 13 14 16 16 17 16 17 16 17 21 22 29 32 32 30 31 31 29 28 28 22 19 18 17 16 15 14 16 17 21 23 23 22 28 27 26 26

GFSNE_sfc_dewp_054.txt.gz
Dewpoint
45 43 44 44 45 44 42 39 36 31 31 32 33 33 31 33 36 34 32 36 36 35 33 33 31 29 28 28 30 31 32 33 33 33 33 33 33 33
44 43 43 44 43 44 41 39 37 35 32 33 32 31 31 25 32 30 30 35 35 36 36 35 34 29 27 28 28 28 30 31 32 31 31 32 32 34
43 42 42 43 42 42 41 38 36 35 33 33 31 30 31 32 28 32 32 29 30 35 36 36 35 31 29 29 27 28 29 30 30 30 30 31 31 33
42 42 42 42 41 41 40 38 36 35 34 32 32 31 31 31 30 29 29 23 25 30 34 34 34 32 32 31 29 29 29 29 30 30 29 30 30 30
42 42 41 41 41 41 40 39 37 35 35 33 32 33 33 31 28 29 28 28 26 31 33 33 33 33 32 32 31 31 30 30 30 30 29 29 29 30
42 42 41 41 40 40 39 39 37 36 36 34 33 32 31 30 29 26 25 27 25 20 26 25 30 31 33 34 32 32 33 32 30 30 31 31 31 30
42 42 42 41 40 39 39 37 35 33 33 33 32 32 31 29 26 27 26 25 25 25 21 21 22 23 23 27 29 30 31 33 33 29 29 29 31 31
40 40 40 40 40 39 38 37 33 31 32 32 32 31 30 31 29 28 28 24 24 25 19 20 22 21 22 24 28 30 29 29 28 28 28 28 30 31
39 38 34 30 33 33 33 34 34 34 32 33 31 31 31 31 31 29 28 27 25 24 20 19 22 22 24 20 28 29 29 31 31 31 30 31 32 31
33 33 33 33 33 33 32 31 31 31 33 33 32 32 31 31 29 29 29 26 23 21 21 20 22 23 24 24 28 29 29 29 30 31 31 31 31 31
32 32 33 31 33 34 32 31 31 30 31 34 35 35 34 33 31 28 26 25 21 22 22 22 21 23 22 22 22 28 28 30 30 30 30 30 30 31
29 28 30 31 31 30 29 29 29 31 33 33 32 32 34 29 29 27 26 25 27 22 23 22 21 21 19 21 22 23 25 28 29 29 30 30 31 29
24 24 24 27 27 27 27 24 23 25 29 31 32 33 33 31 29 27 26 26 25 23 23 24 22 21 20 20 21 22 24 25 26 27 30 32 32 32
22 23 24 25 26 27 26 27 27 28 30 28 28 29 32 33 34 32 28 26 25 24 25 25 24 23 21 19 18 21 22 24 25 26 27 31 33 32
23 23 23 23 25 26 27 28 26 25 24 25 26 26 28 31 33 33 33 31 27 25 23 25 26 23 22 20 20 20 21 23 25 27 26 28 28 32
21 20 21 23 24 23 24 24 25 27 28 29 28 29 30 32 33 33 31 29 29 29 27 26 24 24 23 22 21 20 22 20 24 28 27 25 31 32
19 20 21 21 20 19 19 20 21 22 23 24 26 29 30 32 32 32 31 30 27 25 25 26 26 26 25 23 21 22 22 23 28 22 25 25 28 32
19 18 17 17 17 17 17 17 18 19 19 21 21 27 31 31 31 31 31 29 26 25 25 24 24 25 24 24 25 22 23 27 23 27 26 25 25 26
16 17 15 16 16 16 15 16 16 18 17 18 19 25 30 31 30 30 29 28 27 26 25 25 24 22 19 15 22 27 21 24 26 25 27 27 24 25
16 15 14 14 14 14 14 15 15 16 16 16 18 27 31 29 29 29 29 26 27 26 25 22 22 23 19 15 13 17 27 19 22 26 25 22 25 29
15 13 13 13 13 14 13 14 15 14 15 16 19 24 30 29 27 25 28 27 27 27 24 21 22 22 22 20 10 13 19 29 27 25 22 19 20 23
13 13 13 12 12 12 12 13 12 12 13 14 16 17 18 28 25 22 25 28 27 27 26 24 20 21 20 20 16 12 20 25 29 30 28 25 18 14
11 13 12 11 11 11 10 9 11 9 11 13 14 14 15 18 27 25 28 28 27 25 25 22 22 21 20 19 17 16 15 15 23 21 21 28 27 27

GFSNE_sfc_dewp_057.txt.gz
Dewpoint
45 45 44 45 45 45 45 44 40 36 32 33 32 33 33 35 37 38 35 39 39 38 38 37 35 34 33 31 29 29 29 29 31 32 33 33 33 34
44 44 44 44 44 45 44 44 42 38 34 34 33 33 31 29 33 36 32 37 39 38 37 37 37 35 33 31 29 29 28 28 29 31 32 32 32 33
44 43 43 43 43 43 43 42 40 37 35 33 34 32 29 30 31 35 33 34 33 38 37 37 37 37 36 34 31 30 29 28 29 30 31 31 31 32
42 42 42 43 43 42 42 41 39 38 35 33 33 33 32 32 31 30 30 28 29 33 37 37 37 36 35 34 33 33 31 29 30 30 31 31 31 30
42 41 42 42 41 41 41 40 40 39 37 35 35 33 34 32 32 30 29 29 27 32 35 35 36 36 36 35 34 34 33 33 33 33 31 31 31 31
42 43 42 41 41 41 40 40 39 39 38 37 36 36 33 34 34 32 30 30 29 24 29 28 31 32 35 36 35 35 34 34 34 34 33 32 33 31
42 42 42 42 41 40 40 38 37 36 34 33 32 30 30 30 30 31 30 28 26 27 23 21 22 22 24 28 30 34 34 32 31 32 33 33 32 32
40 40 39 40 40 39 39 38 39 37 34 32 31 30 30 29 30 29 28 29 27 28 27 20 21 21 22 22 27 30 32 31 31 29 29 30 31 30
37 37 38 35 34 33 33 33 33 34 33 33 31 30 31 31 30 29 29 29 28 28 22 19 21 20 22 20 29 31 31 30 32 32 31 31 31 31
32 32 31 30 32 30 28 28 28 30 31 32 32 32 32 33 32 32 32 31 28 24 22 19 21 20 23 24 28 31 29 30 31 30 30 30 31 30
28 28 28 28 30 28 24 22 20 19 21 26 30 32 33 34 34 33 30 27 25 22 23 22 21 22 22 22 23 27 28 29 30 30 29 30 29 30
24 25 26 26 28 26 24 23 23 23 23 23 25 27 29 29 32 32 31 28 27 22 24 24 22 21 18 21 21 22 22 25 28 28 28 30 30 28
23 23 23 25 23 24 26 26 25 26 27 26 26 26 26 28 29 32 32 32 30 28 26 25 21 20 20 20 22 21 21 23 23 24 27 28 30 32
22 23 23 22 24 26 26 27 26 26 27 26 26 25 25 26 28 31 30 31 32 32 27 25 22 21 21 20 19 21 21 22 22 23 24 28 30 31
23 21 21 23 24 25 22 21 22 21 21 22 23 23 24 28 28 30 33 32 29 29 27 26 25 24 23 21 20 20 20 21 23 22 21 25 25 28
21 20 21 23 22 21 20 19 19 18 19 19 19 20 21 22 28 30 31 31 29 27 26 27 26 24 24 23 22 20 20 19 22 22 27 20 22 28
19 18 20 20 17 17 17 17 17 16 16 17 17 17 19 19 21 30 32 31 28 26 26 27 26 26 25 23 20 21 21 21 22 26 23 20 21 24
19 15 8 6 13 15 15 14 14 14 14 16 15 15 16 18 19 30 31 29 28 27 25 25 26 24 25 25 25 22 21 22 23 25 23 20 20 21
15 15 7 6 10 14 13 13 12 13 14 13 13 14 17 16 22 29 29 28 27 26 25 26 25 21 20 19 22 28 22 23 21 21 26 25 18 22
16 15 10 11 12 12 12 11 11 12 11 11 12 13 15 15 17 29 28 27 26 26 25 25 24 23 21 17 14 17 27 16 18 16 22 21 23 26
15 14 11 12 11 11 6 5 7 8 10 8 10 11 13 12 13 24 27 25 22 26 25 24 24 23 24 20 12 10 16 26 24 22 21 18 18 21
9 12 13 12 6 7 1 2 5 6 7 7 9 9 11 11 11 14 21 25 26 26 25 25 22 21 21 19 16 6 16 21 26 30 28 26 19 14
4 8 6 -1 1 3 9 5 4 5 5 7 6 7 10 9 10 12 16 21 25 26 27 26 23 21 20 19 19 16 14 12 19 20 19 28 29 27

GFSNE_sfc_dewp_060.txt.gz
Dewpoint
48 46 45 45 46 46 45 44 41 39 39 36 35 35 35 34 37 41 39 42 41 40 40 40 40 38 37 36 35 33 31 30 29 29 31 32 33 33
46 45 45 45 45 45 45 44 43 41 39 36 34 34 33 31 34 39 38 39 40 39 39 39 39 39 39 37 36 33 31 30 29 29 29 30 31 32
44 44 44 44 44 44 44 44 43 41 39 38 35 34 31 31 30 35 37 36 36 40 39 38 38 38 38 38 37 36 33 30 29 29 29 30 31 32
44 44 43 43 43 43 43 42 41 41 39 37 36 34 33 34 34 34 32 31 33 35 39 38 38 37 37 37 37 36 35 34 31 30 30 30 31 32
43 42 42 43 42 41 41 41 41 40 40 38 38 38 37 35 34 33 33 33 32 35 36 38 38 38 38 37 36 36 35 34 35 34 34 32 32 32
42 42 42 42 41 41 41 40 40 38 37 37 36 36 34 35 34 34 33 32 31 31 33 33 36 37 37 37 36 36 36 36 36 35 35 34 34 34
41 42 42 42 41 40 40 40 35 35 35 34 34 33 31 29 30 31 31 31 30 29 28 27 28 28 30 34 34 37 36 36 36 35 33 32 34 34
41 41 39 39 37 34 34 33 33 32 32 34 33 31 31 30 30 31 31 28 28 29 29 29 30 26 28 25 28 30 31 32 33 31 30 31 31 31
37 34 32 30 32 30 29 29 29 30 30 29 29 29 30 31 33 33 32 30 30 31 30 27 28 27 23 20 29 31 32 33 32 33 33 33 32 32
31 29 28 28 28 25 23 21 21 21 21 20 22 23 25 26 28 29 29 31 34 33 29 30 24 22 22 23 27 30 33 32 30 31 32 31 31 31
26 26 25 24 26 25 24 23 23 24 25 27 28 29 29 30 30 29 25 26 26 30 26 28 24 22 24 22 23 28 31 29 28 29 30 30 30 31
23 22 24 24 23 24 25 25 24 24 25 26 27 27 28 27 29 28 27 26 26 26 25 25 23 25 25 22 22 22 21 25 26 26 26 25 28 28
22 22 23 22 22 25 26 25 23 21 22 22 23 24 24 25 25 26 28 30 28 26 28 27 28 25 23 20 22 22 21 21 22 23 25 27 27 30
21 23 22 22 24 25 24 21 20 21 20 19 19 19 19 19 21 22 23 27 32 30 33 32 27 22 21 19 19 21 21 22 21 22 22 25 28 30
21 20 21 22 23 23 19 18 21 19 17 16 16 17 17 17 19 21 22 26 32 31 32 32 29 23 22 20 19 20 21 22 21 20 20 21 22 23
21 21 21 23 22 21 19 18 19 17 16 16 15 16 16 16 16 18 18 21 29 29 31 31 28 25 23 22 22 22 21 20 20 21 21 19 20 19
20 19 20 17 15 15 17 16 16 14 14 14 14 13 13 14 14 17 17 19 24 27 26 29 27 26 25 24 21 22 22 21 21 20 23 19 19 21
20 17 13 11 13 14 14 13 13 12 12 12 12 11 12 12 13 14 15 21 28 27 27 27 27 27 26 25 25 22 20 20 21 24 24 17 17 17
17 14 8 9 11 12 12 12 11 11 11 10 10 8 10 11 11 11 14 16 27 27 26 26 27 25 22 17 24 27 21 21 21 19 21 19 14 20
16 15 13 13 12 11 11 10 10 8 6 8 6 7 8 9 9 9 11 11 26 26 25 26 27 25 20 18 17 18 28 18 18 14 17 19 22 25
12 11 13 12 11 10 5 2 -5 -4 1 -0 2 6 4 6 8 9 10 12 17 26 24 24 25 26 24 20 14 11 16 24 22 19 19 16 18 20
11 12 12 10 6 5 -0 -3 -6 -5 0 2 3 1 2 5 7 8 9 9 13 21 26 25 26 26 21 19 17 7 14 15 23 28 26 25 18 15
9 10 7 2 2 2 6 -4 -3 -6 3 5 4 2 2 3 6 7 8 10 12 14 25 24 25 23 20 19 19 16 13 9 17 18 18 27 29 28

GFSNE_sfc_dewp_063.txt.gz
Dewpoint
51 50 49 47 46 46 45 44 43 39 39 39 38 37 37 35 37 40 41 42 43 42 42 43 44 44 43 42 40 38 37 37 35 33 32 32 32 33
48 47 46 46 46 46 45 45 44 42 39 39 37 35 35 34 35 37 38 42 42 42 41 41 42 42 42 42 41 39 37 36 35 33 32 32 32 32
46 46 44 45 45 45 44 44 43 43 40 41 39 36 34 34 33 33 37 37 38 40 41 41 40 40 40 40 40 40 39 38 35 33 32 31 32 31
45 45 44 44 44 43 43 42 42 42 41 39 38 36 34 34 34 35 35 35 34 37 39 40 40 39 39 38 38 39 37 38 37 35 32 30 30 30
44 44 44 43 42 42 41 41 41 41 40 38 38 38 36 36 35 35 34 35 34 37 37 37 38 39 40 39 38 37 38 38 36 35 35 34 32 31
43 43 43 42 42 41 41 40 40 38 35 35 36 35 34 34 33 32 34 34 33 33 35 34 35 36 39 39 38 38 38 37 35 36 35 35 35 35
42 42 42 42 41 40 40 39 37 36 36 35 34 33 32 32 29 30 30 31 31 31 31 32 32 32 33 37 38 38 36 36 36 35 35 35 35 35
41 41 38 35 34 33 32 32 31 27 25 26 26 25 26 27 28 28 28 27 25 29 29 29 29 27 28 31 34 35 36 35 35 35 35 34 32 32
38 35 30 29 29 26 24 22 22 23 26 25 23 24 23 24 25 25 25 25 24 24 27 26 29 29 30 30 35 35 33 33 33 33 33 32 32 33
30 29 28 26 26 24 22 21 23 23 24 23 21 22 23 24 25 25 25 26 26 25 28 25 26 29 31 31 32 33 32 32 33 34 33 33 33 32
25 24 23 24 24 24 23 24 24 24 25 25 25 26 28 29 28 27 25 25 24 23 24 26 26 28 24 26 25 31 32 33 33 32 30 30 32 31
22 22 25 23 23 24 25 25 24 22 21 21 21 23 23 26 27 26 25 22 22 22 24 25 24 26 26 25 26 26 29 32 30 27 25 26 26 27
21 21 22 21 23 25 25 23 20 20 19 19 19 20 20 21 20 20 21 22 20 20 24 28 26 27 27 25 25 25 23 23 22 22 24 25 25 26
21 22 22 22 24 23 21 19 18 21 19 17 17 17 17 16 17 18 18 20 21 21 23 28 29 28 26 23 20 22 22 21 21 21 22 23 26 28
22 21 21 22 21 21 17 17 19 18 17 14 14 14 14 15 15 17 17 18 19 19 21 28 31 30 27 23 20 20 20 22 22 21 20 21 21 22
21 21 22 22 20 19 18 17 16 16 15 14 13 14 14 13 13 14 15 15 16 16 21 31 32 31 26 25 21 21 21 18 21 21 20 17 19 18
22 21 18 16 14 15 15 14 14 12 12 13 12 11 10 10 11 13 13 13 14 15 19 27 31 30 29 25 22 22 21 21 22 20 22 19 18 19
20 17 14 13 14 13 13 12 11 10 9 10 9 10 7 8 9 9 11 11 12 13 20 27 27 26 26 26 25 23 20 21 22 23 23 20 16 16
17 14 12 12 13 11 11 10 9 10 9 7 7 8 6 8 6 6 9 10 9 12 14 27 27 26 22 19 24 27 21 21 22 20 21 18 13 19
17 14 13 13 11 9 8 7 8 8 5 5 5 5 3 5 3 4 7 7 8 9 13 26 26 25 21 18 20 18 27 19 20 14 16 18 21 24
13 12 13 12 10 8 8 6 3 1 -1 -4 -3 -2 -2 0 1 2 5 6 8 10 11 24 26 25 25 23 16 16 16 25 23 19 18 15 16 18
12 12 12 10 8 8 5 1 -3 -6 -5 -4 -3 -8 -8 -1 0 1 3 3 7 10 12 14 26 28 24 22 20 10 13 16 21 27 25 23 17 12
11 10 8 6 6 6 5 -1 -4 -10 -4 -1 -1 0 -4 -1 2 3 2 4 7 9 11 13 22 26 23 23 19 16 15 11 16 17 17 26 28 27

GFSNE_sfc_dewp_066.txt.gz
Dewpoint
53 53 52 51 50 49 48 46 45 41 40 42 40 39 40 38 38 39 41 42 43 44 44 44 45 46 46 45 45 44 43 42 40 39 38 37 35 35
52 51 50 49 48 47 47 45 44 43 40 41 38 38 38 36 38 38 37 40 42 42 42 43 43 44 44 44 44 43 43 41 41 39 39 37 36 35
50 49 48 47 46 45 45 44 43 43 40 41 41 39 38 38 37 37 36 37 37 40 41 41 42 42 42 42 42 42 42 42 42 41 39 38 36 36
47 47 46 46 45 44 44 43 42 42 41 39 40 38 37 37 36 36 37 36 36 37 39 40 40 41 41 40 40 40 40 40 40 40 39 38 37 34
46 46 45 45 43 43 43 42 41 41 40 39 38 38 37 37 36 35 35 36 35 37 38 38 38 39 39 39 40 40 40 39 39 39 38 39 37 31
45 45 44 44 43 42 41 40 40 39 36 36 35 35 36 35 34 32 31 33 32 31 33 34 36 36 37 37 38 39 39 40 39 38 39 37 34 34
43 43 43 43 41 41 40 39 38 36 36 34 33 31 29 29 28 30 26 25 25 25 26 31 31 32 32 34 34 36 38 39 39 39 38 37 36 35
41 39 38 36 35 34 33 32 31 28 26 26 26 22 21 26 26 24 24 23 21 27 26 24 26 25 26 28 32 33 35 38 38 38 39 37 36 35
38 34 31 31 29 25 24 23 24 25 25 24 21 22 23 22 24 24 24 24 23 24 25 24 26 25 27 26 32 34 34 36 37 37 37 36 35 34
33 31 28 25 25 22 20 22 23 24 25 24 23 24 25 25 26 26 25 24 24 23 26 23 24 24 26 28 31 33 34 35 37 36 35 34 34 33
26 25 25 24 24 24 23 23 23 24 20 20 20 21 22 24 25 26 23 22 20 18 22 24 23 24 27 26 28 30 32 34 36 34 33 34 33 32
23 23 24 23 25 27 25 24 20 19 18 16 16 19 19 20 22 20 20 18 18 17 22 21 19 22 23 25 26 27 29 34 34 34 31 27 29 27
20 20 22 24 26 26 23 22 20 18 16 15 15 16 17 18 17 17 18 18 18 17 19 21 20 20 24 25 26 27 29 32 32 31 26 25 25 25
21 21 23 25 25 22 21 20 19 18 18 16 15 14 14 14 14 15 16 17 18 18 19 21 20 19 21 24 23 25 27 26 25 25 25 23 24 26
23 22 24 24 22 20 19 19 19 17 15 15 14 12 12 12 11 13 14 14 16 17 16 19 20 20 23 26 25 24 22 22 24 25 25 25 25 26
22 22 23 22 20 19 18 17 16 15 13 13 12 12 12 12 9 10 12 13 14 14 15 19 22 25 25 28 27 25 23 23 24 24 24 24 25 26
23 21 18 16 15 15 15 14 14 13 11 12 11 9 9 9 7 9 9 10 11 11 12 15 18 29 31 29 25 26 23 22 24 24 23 23 25 27
21 18 15 14 14 13 14 13 12 11 10 9 8 6 7 7 6 7 7 8 9 10 11 12 15 25 27 28 29 24 25 23 23 23 24 23 24 26
18 15 13 13 13 12 12 11 10 9 10 7 6 5 6 5 6 4 4 5 6 8 9 11 16 21 23 21 27 30 26 23 24 24 24 24 24 25
16 14 13 13 12 10 10 8 7 8 7 4 4 4 4 4 3 2 2 3 5 6 7 9 13 24 25 23 24 24 27 25 24 23 22 23 24 24
16 15 15 14 12 11 10 8 7 6 4 3 1 1 0 1 0 1 1 1 2 4 6 7 12 19 19 26 24 21 22 25 25 24 21 22 22 22
15 14 14 12 10 9 8 6 4 4 2 1 1 -2 -3 -2 -0 -0 1 1 2 3 6 9 12 18 21 24 22 21 20 19 23 27 24 24 23 20
11 11 9 8 7 6 5 4 2 -1 -2 -2 -2 -0 -4 -3 -0 1 2 2 2 2 4 8 12 15 21 25 23 22 18 16 19 21 22 27 26 26

GFSNE_sfc_dewp_072.txt.gz
Dewpoint
58 58 57 58 59 58 56 55 52 48 46 50 47 47 46 44 44 45 45 43 42 43 42 43 43 44 44 44 45 45 45 45 45 46 46 45 45 45
56 57 57 59 58 58 56 55 54 51 49 49 47 46 45 40 40 44 44 39 40 40 41 41 42 42 43 43 43 43 43 44 44 44 44 45 45 44
57 57 58 58 56 55 55 54 52 52 48 45 44 43 43 44 42 44 43 43 43 41 40 40 40 40 41 41 41 41 41 41 41 40 41 42 42 43
56 58 56 56 55 54 53 50 49 50 48 44 43 43 43 44 44 43 40 38 38 39 38 38 38 39 38 39 39 40 39 39 38 38 37 37 38 39
58 56 55 55 53 49 49 49 48 47 44 44 43 43 43 40 39 40 39 38 33 36 35 36 36 36 37 37 36 36 37 36 35 35 35 36 36 37
55 55 55 54 52 49 47 46 45 44 43 43 43 39 38 39 38 34 33 32 27 15 24 27 29 30 33 34 35 33 33 33 34 33 33 34 34 36
53 52 52 50 47 46 47 45 44 43 42 41 38 36 36 35 33 30 26 23 22 23 21 24 22 22 24 30 29 32 33 31 31 31 32 34 34 36
49 47 46 45 43 40 40 40 41 40 39 38 36 35 34 31 27 25 22 20 18 22 25 22 22 21 21 22 29 30 30 31 32 31 33 34 35 35
45 42 39 38 37 35 33 31 30 30 32 36 34 31 27 25 24 23 22 22 21 21 22 20 23 22 21 15 29 31 31 31 31 32 33 33 34 36
41 39 35 33 31 30 27 26 25 23 23 20 24 24 23 23 24 22 24 24 22 20 19 19 20 20 22 20 26 28 29 30 31 33 33 33 34 35
34 34 32 31 31 31 28 27 25 22 22 22 23 22 22 22 21 21 20 18 22 15 17 17 20 18 17 19 22 28 31 31 32 33 32 33 33 35
31 31 32 31 31 29 27 25 23 19 16 15 17 18 18 20 19 17 15 17 18 16 15 17 14 13 17 18 20 23 26 28 31 33 34 34 36 38
27 28 29 30 29 28 27 25 24 20 18 16 14 16 16 17 17 16 16 16 18 17 16 19 18 16 18 18 18 21 24 29 30 33 31 31 32 28
27 28 30 29 28 25 23 22 21 22 22 20 18 16 15 15 15 14 14 13 13 13 14 17 19 17 17 17 16 18 23 27 29 31 34 33 29 25
29 30 29 27 24 23 21 20 20 22 23 23 19 15 13 11 9 13 14 12 12 14 10 14 16 16 18 18 17 19 22 25 29 32 33 32 29 28
29 28 26 24 24 22 21 20 20 19 18 19 17 14 13 15 15 14 15 14 15 15 14 15 16 19 19 18 18 22 24 26 29 30 30 32 32 31
28 24 23 23 22 20 19 18 19 18 18 19 17 15 14 14 14 15 13 13 14 12 11 11 13 16 17 18 21 20 23 26 29 32 28 29 31 32
26 26 27 25 24 21 21 21 18 15 14 14 15 15 14 14 13 13 13 13 13 12 11 11 13 14 14 16 23 25 25 28 29 28 29 28 28 32
26 25 25 25 23 19 18 17 16 16 14 15 15 14 14 13 12 12 12 11 11 10 9 10 11 12 12 14 17 25 30 30 31 33 29 29 28 28
23 22 21 20 17 16 15 15 15 15 15 13 13 13 13 12 12 10 10 11 11 9 7 6 8 9 12 15 17 20 21 24 32 32 29 29 27 26
18 17 18 17 16 15 16 16 15 14 13 13 12 12 13 11 10 9 10 8 8 7 6 6 7 11 10 13 18 20 24 26 27 33 29 28 25 22
18 16 15 14 15 14 15 14 13 13 12 11 11 11 11 10 9 8 9 9 7 7 6 6 7 7 9 10 14 18 19 25 31 31 26 26 27 24
15 13 13 13 12 11 9 10 9 10 8 8 7 7 8 8 7 7 8 7 6 6 6 6 7 7 7 8 13 15 18 21 29 27 27 26 26 25

GFSNE_sfc_dewp_075.txt.gz
Dewpoint
57 59 57 57 57 57 57 56 55 51 49 51 51 52 52 52 48 48 47 45 44 44 43 44 45 44 44 44 44 44 44 44 45 45 45 46 46 46
57 58 58 58 57 59 58 58 56 53 51 51 51 51 50 46 45 47 47 44 43 41 41 41 42 42 43 43 43 42 42 42 43 43 43 43 43 44
57 57 57 57 58 58 59 57 57 54 51 51 49 51 47 46 42 45 46 45 45 41 41 41 40 39 40 40 40 40 39 39 38 38 37 37 37 37
55 56 55 56 57 59 57 55 54 53 52 50 46 47 45 45 44 44 44 42 43 42 42 39 38 37 37 37 37 38 38 37 35 35 34 33 34 34
55 56 55 56 57 57 55 54 53 52 51 49 45 45 45 45 45 42 42 43 40 42 38 37 36 36 35 36 36 36 35 36 35 34 34 34 33 33
55 56 56 57 56 55 53 52 51 49 47 46 45 43 43 43 40 40 39 40 36 30 28 25 31 34 34 34 34 35 35 35 35 35 34 32 33 34
55 56 56 54 50 52 53 51 49 48 45 45 42 42 41 39 39 38 36 35 35 29 24 25 25 27 29 33 33 35 36 35 33 32 31 32 32 34
54 54 54 49 48 44 44 44 46 46 44 43 41 39 39 38 37 35 31 29 25 28 27 25 26 25 25 26 30 31 30 31 32 32 32 32 33 33
55 53 47 45 44 41 37 35 35 35 36 40 38 37 37 35 33 31 29 29 24 25 24 26 28 26 26 19 31 31 31 31 30 31 32 32 33 33
51 46 42 39 39 37 34 32 31 31 32 31 34 33 32 29 27 27 28 25 25 23 24 24 27 26 27 25 30 30 30 32 33 32 32 33 33 33
37 38 37 35 35 35 32 32 32 30 31 30 29 27 26 24 22 23 24 22 26 19 23 23 23 24 26 25 24 29 29 29 30 31 32 34 35 33
34 34 34 33 33 33 31 30 27 24 21 21 20 17 17 19 17 18 17 19 19 18 21 19 18 18 17 23 25 26 27 28 29 29 32 34 35 36
30 30 31 32 32 32 31 31 29 28 26 25 25 22 18 19 19 19 17 18 19 19 21 20 19 18 20 19 19 23 25 27 31 32 32 32 29 32
28 29 30 30 30 29 28 28 28 29 28 24 22 17 17 16 17 16 16 16 16 15 16 19 19 17 17 17 16 18 22 25 28 30 33 34 31 31
28 28 29 28 26 25 26 26 28 27 25 24 21 18 17 15 13 14 16 15 15 16 12 16 18 16 18 18 17 18 19 21 26 29 32 33 34 32
28 27 27 28 26 24 25 25 23 23 21 22 22 19 18 18 17 16 18 18 17 17 17 20 20 20 19 17 18 19 21 22 25 27 30 35 34 34
27 27 26 25 25 25 24 23 23 21 21 21 20 19 17 17 17 18 17 17 17 15 14 15 17 18 17 16 18 18 19 21 23 27 28 31 33 34
28 27 28 28 27 26 25 22 21 17 17 16 17 17 16 16 16 16 15 16 16 14 15 13 15 15 15 15 18 18 19 23 27 29 29 31 31 33
28 28 27 27 24 23 22 19 18 17 15 16 17 16 16 15 14 14 14 14 14 12 11 13 12 12 11 12 15 20 21 20 21 22 25 33 30 30
24 23 22 21 19 17 17 17 17 18 17 15 15 15 15 14 12 11 11 12 11 10 8 5 7 10 13 15 14 16 15 18 20 23 23 32 31 28
21 21 22 20 18 18 18 18 17 16 15 15 15 14 14 12 10 10 10 10 11 7 7 6 7 13 11 13 14 15 18 20 22 23 26 25 30 27
21 18 17 16 16 16 16 16 14 13 12 11 11 11 11 10 10 9 9 8 7 8 7 7 7 8 10 10 10 13 15 19 19 21 26 28 31 27
17 15 15 14 12 12 10 11 10 11 9 8 8 8 10 8 7 8 8 8 7 6 6 7 8 10 8 8 11 13 14 16 17 21 25 29 28 28

GFSNE_sfc_dewp_078.txt.gz
Dewpoint
55 55 55 55 55 55 55 55 52 48 49 50 52 53 54 54 52 51 49 46 45 46 45 46 47 47 47 47 46 45 44 44 45 45 45 46 46 46
55 55 55 55 55 56 57 56 55 53 50 51 52 52 53 52 50 49 48 46 44 43 43 44 44 44 44 44 44 44 43 43 43 43 42 42 43 42
53 53 54 54 55 57 57 56 55 55 52 52 52 52 49 50 46 47 46 44 42 42 42 42 42 42 41 41 41 41 41 40 39 38 37 36 36 35
53 53 53 54 56 56 56 55 56 56 54 52 50 49 49 49 46 44 46 45 45 43 42 42 41 40 39 38 38 38 37 37 36 34 32 31 32 33
53 53 53 54 54 55 55 55 56 54 54 53 51 48 48 47 45 45 44 44 42 44 43 41 40 39 39 35 35 36 36 36 36 36 34 33 34 33
53 53 53 53 54 54 55 56 54 53 53 52 51 47 45 45 46 44 42 42 42 39 40 37 38 38 36 35 35 35 35 35 36 36 35 35 34 33
54 53 54 52 49 52 55 54 54 52 52 50 49 44 43 41 42 42 41 40 41 40 32 28 28 27 29 36 34 36 36 37 37 36 35 34 33 33
53 53 53 49 48 46 46 47 51 51 50 49 47 44 43 43 42 39 38 35 32 35 30 27 27 27 27 27 31 34 34 34 34 34 33 33 33 33
52 53 51 50 47 50 37 38 36 35 34 46 45 39 36 38 37 34 32 32 32 33 29 25 28 25 27 23 31 33 29 30 31 32 33 33 32 33
52 52 52 46 42 39 35 33 33 33 34 35 34 33 34 35 35 34 33 33 33 30 28 25 25 26 28 28 31 33 32 31 29 30 31 32 32 33
39 39 39 37 37 37 34 32 29 29 33 34 33 33 32 31 32 33 30 29 30 25 26 25 24 25 26 25 24 28 31 30 31 32 31 32 32 33
33 34 34 34 34 35 34 31 28 26 26 25 26 27 27 24 24 27 25 27 27 24 22 25 21 21 22 23 24 23 25 28 29 28 28 32 33 33
31 31 32 33 33 32 31 28 26 28 29 29 28 28 30 29 28 26 26 26 25 24 24 24 23 21 22 20 20 22 21 22 25 29 30 30 32 32
29 30 31 32 31 31 30 30 29 29 28 28 28 27 26 25 23 21 21 20 20 19 19 21 23 20 18 16 15 18 20 23 24 25 26 28 32 33
30 30 30 29 28 28 29 29 29 28 28 26 25 25 21 18 18 20 21 19 20 21 18 21 21 19 18 16 15 17 18 18 21 22 25 28 29 33
28 27 26 25 26 27 26 25 25 25 26 25 25 25 23 23 22 22 21 22 21 20 20 21 21 21 18 17 16 16 17 18 19 21 23 24 26 31
27 26 25 25 25 25 25 25 26 26 24 24 23 22 20 19 20 20 20 19 17 16 16 18 20 20 19 17 16 15 16 16 18 21 24 25 26 28
27 26 26 26 25 25 24 23 23 21 20 19 19 19 18 18 17 16 17 16 16 16 16 16 17 16 14 14 15 14 16 19 20 18 19 20 21 25
26 26 24 24 23 22 22 21 19 18 19 18 17 17 16 15 15 14 14 14 14 13 12 11 11 10 8 7 15 15 13 12 13 13 16 19 20 22
24 22 22 22 21 20 20 19 17 18 16 15 15 14 12 14 12 11 11 9 10 10 8 7 9 11 12 9 9 11 14 13 14 15 17 20 21 25
21 20 20 20 19 18 18 17 17 15 14 13 13 12 7 8 7 8 7 6 6 8 7 7 8 11 9 10 7 8 12 14 14 15 19 18 16 20
18 17 17 17 16 15 15 14 13 12 12 11 7 4 3 5 4 3 3 4 7 7 7 7 7 8 8 9 7 7 9 11 14 16 20 21 21 18
15 16 14 13 12 12 11 11 10 8 9 8 7 7 2 2 5 4 4 6 7 6 6 6 7 6 5 5 6 7 8 9 11 13 15 20 25 28

GFSNE_sfc_dewp_081.txt.gz
Dewpoint
54 54 54 54 55 55 55 55 52 48 47 50 52 53 52 52 51 52 51 49 47 46 47 49 50 50 50 49 49 50 49 48 47 46 46 46 46 46
55 54 54 54 54 55 55 55 55 52 49 50 51 52 53 53 52 52 52 50 46 45 46 46 46 47 47 47 47 47 46 45 45 44 44 44 43 43
54 54 54 54 54 55 55 55 54 54 52 52 52 52 50 53 53 52 51 49 46 44 43 44 44 44 44 44 44 44 44 43 42 41 40 40 39 37
53 53 54 54 54 55 55 54 54 54 53 52 53 48 50 50 51 48 48 46 45 44 43 43 43 42 42 41 41 40 40 40 38 37 34 33 32 32
52 52 52 52 52 52 53 54 54 54 55 53 52 50 51 47 47 46 47 47 46 45 42 42 42 42 41 40 39 37 36 36 37 37 36 34 32 32
52 52 52 52 52 52 53 54 55 54 55 54 53 52 48 46 48 47 44 46 45 44 44 42 42 41 41 39 37 35 36 36 36 36 36 35 35 35
51 52 53 52 49 51 53 54 54 54 54 53 52 51 44 42 44 46 45 44 42 43 42 40 39 38 37 37 34 37 37 36 37 37 37 36 34 34
51 51 52 48 48 44 45 46 51 54 52 52 52 50 48 46 46 44 41 37 36 40 37 36 34 34 33 32 35 35 36 37 37 37 36 35 35 34
52 52 52 52 48 51 41 39 37 37 36 49 51 50 43 41 38 35 34 34 33 36 35 32 34 33 31 26 31 33 35 32 32 33 34 34 33 33
53 53 52 49 47 43 37 35 33 34 35 37 38 36 36 37 37 36 35 34 34 35 35 30 30 28 29 31 33 34 34 32 32 31 31 32 32 33
43 43 49 45 39 39 36 32 31 31 34 35 34 34 34 35 35 34 32 31 29 30 31 30 29 27 27 27 27 30 28 28 30 31 31 30 29 32
35 35 36 38 36 36 34 32 29 29 29 29 28 29 31 31 31 32 32 29 29 26 25 26 23 23 22 25 23 23 25 23 24 25 27 30 32 28
33 32 33 35 35 34 33 32 29 28 28 29 29 29 29 28 28 29 29 28 26 25 22 23 22 21 22 20 21 21 20 22 23 23 25 25 26 27
31 32 32 33 32 31 30 31 30 29 28 27 27 26 25 23 22 21 21 20 21 20 20 21 21 20 18 16 15 18 19 20 22 22 22 24 25 26
30 31 31 31 30 30 30 30 29 28 27 26 24 23 24 25 25 24 25 23 23 22 18 21 22 20 20 17 16 16 17 17 20 21 23 21 21 23
26 27 26 26 26 26 26 27 27 26 25 24 23 24 25 24 22 22 21 21 20 20 20 22 22 22 20 19 18 17 18 17 18 19 20 21 22 24
26 26 25 24 24 24 24 24 24 24 22 23 22 22 21 21 20 19 18 17 17 16 16 18 19 20 19 17 16 15 15 16 18 21 19 18 18 20
26 24 24 24 23 22 21 20 21 21 21 21 20 19 18 17 16 16 16 16 15 14 14 13 13 10 10 10 12 13 15 14 13 14 14 14 14 17
23 22 21 21 21 21 20 19 19 19 19 17 16 16 16 15 14 13 13 12 11 10 8 9 10 10 9 6 8 11 11 10 11 12 13 15 15 16
21 20 19 19 19 18 18 18 17 16 16 16 15 13 12 12 11 10 9 8 8 8 7 7 7 8 7 5 7 9 11 11 12 12 14 16 17 19
17 17 17 17 17 17 16 15 14 12 11 10 9 8 5 6 3 5 4 4 6 7 6 6 6 10 9 10 4 5 8 10 11 11 11 12 12 14
16 15 15 14 14 13 12 12 11 10 9 8 5 3 2 5 3 3 3 3 6 7 6 6 7 7 5 4 3 3 6 8 10 13 14 15 15 12
12 11 10 10 10 10 9 8 7 7 7 6 4 0 -5 -3 3 1 -2 3 5 5 5 4 4 5 5 4 4 4 5 5 8 10 14 18 18 21

GFSNE_sfc_dewp_084.txt.gz
Dewpoint
55 55 54 54 55 55 55 53 50 47 47 48 51 53 52 52 51 50 49 48 46 46 47 49 51 52 53 54 55 55 54 54 53 52 51 49 48 47
55 55 54 54 54 55 55 55 54 51 49 49 50 53 53 52 51 51 51 49 47 45 45 45 47 49 50 52 52 51 50 50 50 48 47 46 46 46
55 54 54 53 53 54 55 54 54 53 51 51 53 53 52 53 53 53 53 52 52 47 45 45 45 46 47 47 47 48 48 47 47 46 45 44 44 43
53 53 53 53 53 53 53 53 53 54 52 51 51 51 50 52 53 54 53 53 52 49 45 45 45 45 44 44 44 44 44 44 43 43 42 40 39 36
51 52 52 53 53 53 53 53 53 53 53 53 51 52 53 49 49 48 48 50 49 47 44 43 43 44 43 43 43 42 42 41 39 38 38 37 34 32
51 51 51 51 52 52 53 53 53 53 53 53 52 52 53 50 50 49 47 47 48 48 45 43 43 43 43 42 42 41 40 38 37 36 36 35 35 35
51 51 51 50 48 50 51 51 51 51 51 51 52 53 50 44 47 49 50 49 45 44 44 44 42 42 42 41 40 38 37 37 37 37 37 36 35 35
50 50 51 47 47 44 44 45 49 51 51 51 51 51 52 49 50 49 47 39 38 41 39 37 39 39 39 39 38 38 38 38 38 38 38 38 37 35
52 51 51 51 47 51 44 42 40 39 40 51 52 52 51 52 50 45 43 40 35 37 36 33 35 35 37 37 37 37 38 36 36 36 36 35 35 34
53 52 52 51 50 49 46 43 41 37 37 38 42 43 39 40 43 41 38 33 34 34 35 31 32 32 34 35 35 36 34 33 33 32 32 32 32 32
54 53 53 51 48 44 44 39 32 32 35 36 35 35 35 35 37 36 33 33 30 30 30 31 31 31 31 31 32 30 27 29 27 26 26 28 30 31
52 41 37 45 44 40 47 39 34 31 31 31 30 30 31 31 31 33 33 30 28 26 25 28 25 26 24 27 26 25 24 22 23 22 22 23 24 24
42 33 33 35 35 35 35 35 33 30 29 28 28 27 26 25 25 26 28 29 27 23 22 25 22 22 22 20 20 21 22 22 21 22 22 22 23 24
31 32 32 33 32 31 30 31 30 29 28 26 25 24 24 25 26 27 27 26 26 24 23 24 23 19 18 18 15 19 20 21 22 22 22 23 23 22
31 31 31 30 30 29 30 29 28 27 26 24 23 23 24 26 26 26 26 26 26 25 23 23 21 20 20 18 17 17 17 18 20 21 22 21 21 22
26 26 26 26 26 26 25 26 26 26 25 23 22 23 24 23 22 23 21 21 20 20 21 22 21 21 18 16 16 17 17 17 19 21 21 19 21 20
27 26 25 24 22 22 22 23 23 23 22 22 21 21 20 19 19 20 18 17 16 15 15 14 13 13 13 11 13 12 14 15 15 15 13 13 15 17
25 23 22 21 19 19 19 20 21 20 20 19 19 19 17 17 16 15 15 14 13 12 10 9 12 12 10 9 13 9 9 10 10 10 11 12 12 15
21 21 20 20 19 19 19 17 16 18 19 17 17 17 15 13 13 12 11 10 9 8 7 9 9 8 4 2 6 8 9 10 11 11 12 11 11 13
19 18 17 17 18 18 17 16 16 16 15 13 12 12 12 11 9 8 7 8 7 6 6 6 6 6 5 3 6 8 9 8 8 7 8 10 12 14
15 14 15 15 15 14 14 12 11 10 10 9 8 7 7 7 6 6 6 6 6 5 4 4 6 9 6 8 -2 2 6 9 10 9 10 10 10 11
12 11 12 12 12 11 11 10 9 9 8 6 2 1 -1 3 3 3 1 -0 5 5 5 5 4 5 5 4 2 2 4 6 9 12 13 13 13 10
9 8 8 8 8 7 7 5 4 1 2 -0 -1 1 -5 -3 1 1 -1 2 4 3 4 3 4 4 3 2 3 3 4 4 6 6 8 13 14 16